Observation data for Wall on 02/14/2020      Previous  Date  Next       Current Mesonet Observations  Soil Data  Daily Summary Page  Observations in Plain Language
KWA1 140600Z 08004KT M01/M01 A3036 RMK A01 T10101014  RH  097%=      5-min Rain = 0
KWA1 140601Z 08004KT M01/M01 A3036 RMK A01 T10101014  RH  097%=      5-min Rain = 0
KWA1 140602Z 09004KT M01/M01 A3036 RMK A01 T10101014  RH  097%=      5-min Rain = 0
KWA1 140603Z 10004KT M01/M01 A3036 RMK A01 T10101014  RH  097%=      5-min Rain = 0
KWA1 140604Z 10004KT M01/M01 A3036 RMK A01 T10101014  RH  097%=      5-min Rain = 0
KWA1 140605Z 10004KT M01/M01 A3036 RMK A01 T10101014  RH  097%=      5-min Rain = 0
KWA1 140606Z 10004KT M01/M01 A3036 RMK A01 T10101014  RH  097%=      5-min Rain = 0
KWA1 140607Z 10004KT M01/M01 A3036 RMK A01 T10101014  RH  097%=      5-min Rain = 0
KWA1 140608Z 10004KT M01/M01 A3036 RMK A01 T10101014  RH  097%=      5-min Rain = 0
KWA1 140609Z 10004KT M01/M01 A3036 RMK A01 T10101014  RH  097%=      5-min Rain = 0
KWA1 140610Z 11003KT M01/M01 A3036 RMK A01 T10101014  RH  097%=      5-min Rain = 0
KWA1 140611Z 11004KT M01/M01 A3036 RMK A01 T10101014  RH  097%=      5-min Rain = 0
KWA1 140612Z 11004KT M01/M02 A3036 RMK A01 T10101015  RH  097%=      5-min Rain = 0
KWA1 140613Z 12004KT M01/M02 A3036 RMK A01 T10111015  RH  097%=      5-min Rain = 0
KWA1 140614Z 12005KT M01/M02 A3036 RMK A01 T10111015  RH  097%=      5-min Rain = 0
KWA1 140615Z 12005KT M01/M02 A3036 RMK A01 T10111015  RH  097%=      5-min Rain = 0
KWA1 140616Z 12005KT M01/M02 A3036 RMK A01 T10111015  RH  097%=      5-min Rain = 0
KWA1 140617Z 13004KT M01/M02 A3036 RMK A01 T10111015  RH  097%=      5-min Rain = 0
KWA1 140618Z 12005KT M01/M02 A3036 RMK A01 T10111015  RH  097%=      5-min Rain = 0
KWA1 140619Z 12004KT M01/M02 A3036 RMK A01 T10111015  RH  097%=      5-min Rain = 0
KWA1 140620Z 12004KT M01/M02 A3036 RMK A01 T10111016  RH  097%=      5-min Rain = 0
KWA1 140621Z 12004KT M01/M02 A3036 RMK A01 T10111016  RH  097%=      5-min Rain = 0
KWA1 140622Z 12004KT M01/M02 A3036 RMK A01 T10121016  RH  097%=      5-min Rain = 0
KWA1 140623Z 13004KT M01/M02 A3036 RMK A01 T10121016  RH  097%=      5-min Rain = 0
KWA1 140624Z 13004KT M01/M02 A3036 RMK A01 T10121016  RH  097%=      5-min Rain = 0
KWA1 140625Z 13004KT M01/M02 A3036 RMK A01 T10131017  RH  097%=      5-min Rain = 0
KWA1 140626Z 13004KT M01/M02 A3036 RMK A01 T10131017  RH  097%=      5-min Rain = 0
KWA1 140627Z 12004KT M01/M02 A3036 RMK A01 T10131017  RH  097%=      5-min Rain = 0
KWA1 140628Z 12005KT M01/M02 A3036 RMK A01 T10121016  RH  097%=      5-min Rain = 0
KWA1 140629Z 13005KT M01/M02 A3036 RMK A01 T10121015  RH  097%=      5-min Rain = 0
KWA1 140630Z 12005KT M01/M02 A3036 RMK A01 T10111015  RH  097%=      5-min Rain = 0
KWA1 140631Z 13004KT M01/M02 A3036 RMK A01 T10111015  RH  097%=      5-min Rain = 0
KWA1 140632Z 12004KT M01/M02 A3036 RMK A01 T10121016  RH  097%=      5-min Rain = 0
KWA1 140633Z 12004KT M01/M02 A3036 RMK A01 T10121015  RH  097%=      5-min Rain = 0
KWA1 140634Z 12004KT M01/M02 A3036 RMK A01 T10121016  RH  097%=      5-min Rain = 0
KWA1 140635Z 12004KT M01/M02 A3036 RMK A01 T10121016  RH  097%=      5-min Rain = 0
KWA1 140636Z 12005KT M01/M02 A3036 RMK A01 T10121016  RH  097%=      5-min Rain = 0
KWA1 140637Z 12005KT M01/M02 A3036 RMK A01 T10121016  RH  097%=      5-min Rain = 0
KWA1 140638Z 12005KT M01/M02 A3036 RMK A01 T10121016  RH  097%=      5-min Rain = 0
KWA1 140639Z 12005KT M01/M02 A3036 RMK A01 T10121016  RH  097%=      5-min Rain = 0
KWA1 140640Z 12005KT M01/M02 A3036 RMK A01 T10121016  RH  097%=      5-min Rain = 0
KWA1 140641Z 12005KT M01/M02 A3036 RMK A01 T10121016  RH  097%=      5-min Rain = 0
KWA1 140642Z 12006KT M01/M02 A3036 RMK A01 T10121016  RH  097%=      5-min Rain = 0
KWA1 140643Z 12006KT M01/M02 A3036 RMK A01 T10121016  RH  097%=      5-min Rain = 0
KWA1 140644Z 12006KT M01/M02 A3036 RMK A01 T10121016  RH  097%=      5-min Rain = 0
KWA1 140645Z 11005KT M01/M02 A3036 RMK A01 T10121015  RH  097%=      5-min Rain = 0
KWA1 140646Z 11005KT M01/M02 A3036 RMK A01 T10111015  RH  097%=      5-min Rain = 0
KWA1 140647Z 10006KT M01/M02 A3036 RMK A01 T10111015  RH  097%=      5-min Rain = 0
KWA1 140648Z 10006KT M01/M01 A3036 RMK A01 T10111014  RH  097%=      5-min Rain = 0
KWA1 140649Z 10006KT M01/M01 A3036 RMK A01 T10101014  RH  097%=      5-min Rain = 0
KWA1 140650Z 10006KT M01/M02 A3036 RMK A01 T10111015  RH  097%=      5-min Rain = 0
KWA1 140651Z 10006KT M01/M02 A3036 RMK A01 T10101015  RH  097%=      5-min Rain = 0
KWA1 140652Z 10006KT M01/M02 A3036 RMK A01 T10111015  RH  097%=      5-min Rain = 0
KWA1 140653Z 10006KT M01/M02 A3036 RMK A01 T10111016  RH  097%=      5-min Rain = 0
KWA1 140654Z 09005KT M01/M02 A3036 RMK A01 T10101015  RH  096%=      5-min Rain = 0
KWA1 140655Z 09006KT M01/M02 A3036 RMK A01 T10111016  RH  096%=      5-min Rain = 0
KWA1 140656Z 09005KT M01/M02 A3036 RMK A01 T10101016  RH  096%=      5-min Rain = 0
KWA1 140657Z 09006KT M01/M02 A3036 RMK A01 T10101016  RH  096%=      5-min Rain = 0
KWA1 140658Z 09006KT M01/M02 A3036 RMK A01 T10101016  RH  096%=      5-min Rain = 0
KWA1 140659Z 09006KT M01/M02 A3036 RMK A01 T10101016  RH  096%=      5-min Rain = 0
KWA1 140700Z 09006KT M01/M02 A3036 RMK A01 T10111016  RH  096%=      5-min Rain = 0
KWA1 140701Z 09006KT M01/M02 A3036 RMK A01 T10111016  RH  096%=      5-min Rain = 0
KWA1 140702Z 09006KT M01/M02 A3036 RMK A01 T10111016  RH  096%=      5-min Rain = 0
KWA1 140703Z 09006KT M01/M02 A3036 RMK A01 T10111017  RH  096%=      5-min Rain = 0
KWA1 140704Z 09006KT M01/M02 A3036 RMK A01 T10101016  RH  096%=      5-min Rain = 0
KWA1 140705Z 09006KT M01/M02 A3036 RMK A01 T10101016  RH  096%=      5-min Rain = 0
KWA1 140706Z 09006KT M01/M02 A3036 RMK A01 T10111017  RH  096%=      5-min Rain = 0
KWA1 140707Z 09006KT M01/M02 A3036 RMK A01 T10111016  RH  096%=      5-min Rain = 0
KWA1 140708Z 09006KT M01/M02 A3036 RMK A01 T10101016  RH  096%=      5-min Rain = 0
KWA1 140709Z 09006KT M01/M02 A3036 RMK A01 T10101016  RH  096%=      5-min Rain = 0
KWA1 140710Z 09007KT M01/M02 A3036 RMK A01 T10101017  RH  096%=      5-min Rain = 0
KWA1 140711Z 09007KT M01/M02 A3036 RMK A01 T10111017  RH  096%=      5-min Rain = 0
KWA1 140712Z 08007KT M01/M02 A3036 RMK A01 T10111017  RH  096%=      5-min Rain = 0
KWA1 140713Z 09007KT M01/M02 A3036 RMK A01 T10111017  RH  096%=      5-min Rain = 0
KWA1 140714Z 09006KT M01/M02 A3036 RMK A01 T10111017  RH  096%=      5-min Rain = 0
KWA1 140715Z 09006KT M01/M02 A3036 RMK A01 T10111017  RH  096%=      5-min Rain = 0
KWA1 140716Z 09006KT M01/M02 A3036 RMK A01 T10111017  RH  096%=      5-min Rain = 0
KWA1 140717Z 09006KT M01/M02 A3036 RMK A01 T10111017  RH  096%=      5-min Rain = 0
KWA1 140718Z 09006KT M01/M02 A3036 RMK A01 T10111017  RH  096%=      5-min Rain = 0
KWA1 140719Z 09006KT M01/M02 A3036 RMK A01 T10111017  RH  096%=      5-min Rain = 0
KWA1 140720Z 09006KT M01/M02 A3036 RMK A01 T10111017  RH  096%=      5-min Rain = 0
KWA1 140721Z 09006KT M01/M02 A3036 RMK A01 T10111017  RH  096%=      5-min Rain = 0
KWA1 140722Z 09005KT M01/M02 A3036 RMK A01 T10111017  RH  096%=      5-min Rain = 0
KWA1 140723Z 09006KT M01/M02 A3036 RMK A01 T10111017  RH  095%=      5-min Rain = 0
KWA1 140724Z 09006KT M01/M02 A3036 RMK A01 T10111017  RH  095%=      5-min Rain = 0
KWA1 140725Z 09006KT M01/M02 A3036 RMK A01 T10111017  RH  095%=      5-min Rain = 0
KWA1 140726Z 10006KT M01/M02 A3036 RMK A01 T10111017  RH  095%=      5-min Rain = 0
KWA1 140727Z 10006KT M01/M02 A3036 RMK A01 T10111017  RH  095%=      5-min Rain = 0
KWA1 140728Z 10006KT M01/M02 A3036 RMK A01 T10111017  RH  095%=      5-min Rain = 0
KWA1 140729Z 09006KT M01/M02 A3036 RMK A01 T10111017  RH  095%=      5-min Rain = 0
KWA1 140730Z 09006KT M01/M02 A3036 RMK A01 T10111018  RH  095%=      5-min Rain = 0
KWA1 140731Z 09006KT M01/M02 A3036 RMK A01 T10111017  RH  095%=      5-min Rain = 0
KWA1 140732Z 09006KT M01/M02 A3036 RMK A01 T10111017  RH  095%=      5-min Rain = 0
KWA1 140733Z 09006KT M01/M02 A3036 RMK A01 T10111017  RH  095%=      5-min Rain = 0
KWA1 140734Z 09007KT M01/M02 A3036 RMK A01 T10111017  RH  096%=      5-min Rain = 0
KWA1 140735Z 09007KT M01/M02 A3036 RMK A01 T10111017  RH  095%=      5-min Rain = 0
KWA1 140736Z 09007KT M01/M02 A3036 RMK A01 T10111017  RH  095%=      5-min Rain = 0
KWA1 140737Z 09007KT M01/M02 A3036 RMK A01 T10111017  RH  095%=      5-min Rain = 0
KWA1 140738Z 09007KT M01/M02 A3036 RMK A01 T10111018  RH  095%=      5-min Rain = 0
KWA1 140739Z 10007KT M01/M02 A3036 RMK A01 T10111017  RH  095%=      5-min Rain = 0
KWA1 140740Z 10007KT M01/M02 A3036 RMK A01 T10111018  RH  095%=      5-min Rain = 0
KWA1 140741Z 11006KT M01/M02 A3036 RMK A01 T10111018  RH  095%=      5-min Rain = 0
KWA1 140742Z 11006KT M01/M02 A3036 RMK A01 T10111017  RH  095%=      5-min Rain = 0
KWA1 140743Z 11006KT M01/M02 A3036 RMK A01 T10111018  RH  095%=      5-min Rain = 0
KWA1 140744Z 11007KT M01/M02 A3036 RMK A01 T10111017  RH  095%=      5-min Rain = 0
KWA1 140745Z 10007KT M01/M02 A3036 RMK A01 T10101017  RH  095%=      5-min Rain = 0
KWA1 140746Z 10007KT M01/M02 A3036 RMK A01 T10101017  RH  095%=      5-min Rain = 0
KWA1 140747Z 10006KT M01/M02 A3036 RMK A01 T10101017  RH  095%=      5-min Rain = 0
KWA1 140748Z 10006KT M01/M02 A3036 RMK A01 T10101017  RH  095%=      5-min Rain = 0
KWA1 140749Z 10007KT M01/M02 A3036 RMK A01 T10101017  RH  095%=      5-min Rain = 0
KWA1 140750Z 10006KT M01/M02 A3036 RMK A01 T10101017  RH  095%=      5-min Rain = 0
KWA1 140751Z 09007KT M01/M02 A3036 RMK A01 T10101017  RH  095%=      5-min Rain = 0
KWA1 140752Z 09007KT M01/M02 A3036 RMK A01 T10101017  RH  095%=      5-min Rain = 0
KWA1 140753Z 10007KT M01/M02 A3036 RMK A01 T10101017  RH  095%=      5-min Rain = 0
KWA1 140754Z 10007KT M01/M02 A3035 RMK A01 T10101017  RH  095%=      5-min Rain = 0
KWA1 140755Z 10007KT M01/M02 A3035 RMK A01 T10101018  RH  095%=      5-min Rain = 0
KWA1 140756Z 10007KT M01/M02 A3035 RMK A01 T10101018  RH  095%=      5-min Rain = 0
KWA1 140757Z 10007KT M01/M02 A3035 RMK A01 T10111018  RH  095%=      5-min Rain = 0
KWA1 140758Z 10007KT M01/M02 A3035 RMK A01 T10101018  RH  095%=      5-min Rain = 0
KWA1 140759Z 09007KT M01/M02 A3035 RMK A01 T10101018  RH  095%=      5-min Rain = 0
KWA1 140800Z 09007KT M01/M02 A3035 RMK A01 T10101018  RH  095%=      5-min Rain = 0
KWA1 140801Z 09007KT M01/M02 A3036 RMK A01 T10101018  RH  095%=      5-min Rain = 0
KWA1 140802Z 09007KT M01/M02 A3036 RMK A01 T10101018  RH  095%=      5-min Rain = 0
KWA1 140803Z 09006KT M01/M02 A3036 RMK A01 T10111018  RH  095%=      5-min Rain = 0
KWA1 140804Z 09006KT M01/M02 A3036 RMK A01 T10111018  RH  095%=      5-min Rain = 0
KWA1 140805Z 09006KT M01/M02 A3036 RMK A01 T10111018  RH  095%=      5-min Rain = 0
KWA1 140806Z 10006KT M01/M02 A3036 RMK A01 T10111018  RH  095%=      5-min Rain = 0
KWA1 140807Z 10006KT M01/M02 A3036 RMK A01 T10111018  RH  095%=      5-min Rain = 0
KWA1 140808Z 10006KT M01/M02 A3036 RMK A01 T10111018  RH  095%=      5-min Rain = 0
KWA1 140809Z 11005KT M01/M02 A3036 RMK A01 T10111019  RH  095%=      5-min Rain = 0
KWA1 140810Z 10005KT M01/M02 A3036 RMK A01 T10111018  RH  095%=      5-min Rain = 0
KWA1 140811Z 11005KT M01/M02 A3036 RMK A01 T10111019  RH  095%=      5-min Rain = 0
KWA1 140812Z 11004KT M01/M02 A3036 RMK A01 T10111018  RH  095%=      5-min Rain = 0
KWA1 140813Z 11004KT M01/M02 A3036 RMK A01 T10111019  RH  095%=      5-min Rain = 0
KWA1 140814Z 11004KT M01/M02 A3036 RMK A01 T10111019  RH  095%=      5-min Rain = 0
KWA1 140815Z 11004KT M01/M02 A3036 RMK A01 T10111019  RH  095%=      5-min Rain = 0
KWA1 140816Z 11005KT M01/M02 A3036 RMK A01 T10111019  RH  095%=      5-min Rain = 0
KWA1 140817Z 11005KT M01/M02 A3036 RMK A01 T10111019  RH  095%=      5-min Rain = 0
KWA1 140818Z 11005KT M01/M02 A3036 RMK A01 T10121019  RH  095%=      5-min Rain = 0
KWA1 140819Z 11004KT M01/M02 A3036 RMK A01 T10121020  RH  095%=      5-min Rain = 0
KWA1 140820Z 11004KT M01/M02 A3036 RMK A01 T10131020  RH  095%=      5-min Rain = 0
KWA1 140821Z 10004KT M01/M02 A3036 RMK A01 T10131020  RH  095%=      5-min Rain = 0
KWA1 140822Z 11004KT M01/M02 A3035 RMK A01 T10131020  RH  095%=      5-min Rain = 0
KWA1 140823Z 11004KT M01/M02 A3036 RMK A01 T10131020  RH  095%=      5-min Rain = 0
KWA1 140824Z 10004KT M01/M02 A3036 RMK A01 T10131020  RH  095%=      5-min Rain = 0
KWA1 140825Z 10004KT M01/M02 A3036 RMK A01 T10131020  RH  095%=      5-min Rain = 0
KWA1 140826Z 10003KT M01/M02 A3035 RMK A01 T10131020  RH  095%=      5-min Rain = 0
KWA1 140827Z 10003KT M01/M02 A3035 RMK A01 T10131020  RH  095%=      5-min Rain = 0
KWA1 140828Z 11004KT M01/M02 A3035 RMK A01 T10141021  RH  095%=      5-min Rain = 0
KWA1 140829Z 11003KT M01/M02 A3035 RMK A01 T10141021  RH  095%=      5-min Rain = 0
KWA1 140830Z 11003KT M01/M02 A3035 RMK A01 T10141021  RH  095%=      5-min Rain = 0
KWA1 140831Z 11003KT M01/M02 A3035 RMK A01 T10141021  RH  095%=      5-min Rain = 0
KWA1 140832Z 11003KT M02/M02 A3035 RMK A01 T10151022  RH  095%=      5-min Rain = 0
KWA1 140833Z 11003KT M02/M02 A3035 RMK A01 T10151021  RH  095%=      5-min Rain = 0
KWA1 140834Z 10003KT M02/M02 A3035 RMK A01 T10151021  RH  095%=      5-min Rain = 0
KWA1 140835Z 10003KT M02/M02 A3036 RMK A01 T10151022  RH  095%=      5-min Rain = 0
KWA1 140836Z 09003KT M02/M02 A3035 RMK A01 T10151022  RH  095%=      5-min Rain = 0
KWA1 140837Z 09003KT M02/M02 A3035 RMK A01 T10161023  RH  095%=      5-min Rain = 0
KWA1 140838Z 09003KT M02/M02 A3035 RMK A01 T10161023  RH  095%=      5-min Rain = 0
KWA1 140839Z 09003KT M02/M02 A3035 RMK A01 T10171023  RH  095%=      5-min Rain = 0
KWA1 140840Z 09003KT M02/M02 A3035 RMK A01 T10171024  RH  095%=      5-min Rain = 0
KWA1 140841Z 09003KT M02/M02 A3035 RMK A01 T10181024  RH  095%=      5-min Rain = 0
KWA1 140842Z 09003KT M02/M02 A3035 RMK A01 T10181024  RH  096%=      5-min Rain = 0
KWA1 140843Z 09003KT M02/M02 A3035 RMK A01 T10181024  RH  096%=      5-min Rain = 0
KWA1 140844Z 09003KT M02/M02 A3035 RMK A01 T10181024  RH  096%=      5-min Rain = 0
KWA1 140845Z 09003KT M02/M02 A3035 RMK A01 T10181024  RH  096%=      5-min Rain = 0
KWA1 140846Z 08003KT M02/M02 A3035 RMK A01 T10181024  RH  096%=      5-min Rain = 0
KWA1 140847Z 08003KT M02/M02 A3036 RMK A01 T10181024  RH  096%=      5-min Rain = 0
KWA1 140848Z 07003KT M02/M02 A3036 RMK A01 T10191024  RH  096%=      5-min Rain = 0
KWA1 140849Z 06003KT M02/M02 A3036 RMK A01 T10191024  RH  096%=      5-min Rain = 0
KWA1 140850Z 06003KT M02/M02 A3036 RMK A01 T10181024  RH  096%=      5-min Rain = 0
KWA1 140851Z 06003KT M02/M02 A3036 RMK A01 T10191024  RH  096%=      5-min Rain = 0
KWA1 140852Z 06003KT M02/M02 A3036 RMK A01 T10181024  RH  096%=      5-min Rain = 0
KWA1 140853Z 07003KT M02/M02 A3036 RMK A01 T10191024  RH  096%=      5-min Rain = 0
KWA1 140854Z 08003KT M02/M02 A3036 RMK A01 T10191024  RH  096%=      5-min Rain = 0
KWA1 140855Z 08003KT M02/M02 A3035 RMK A01 T10191023  RH  096%=      5-min Rain = 0
KWA1 140856Z 08003KT M02/M02 A3035 RMK A01 T10191024  RH  096%=      5-min Rain = 0
KWA1 140857Z 08003KT M02/M02 A3035 RMK A01 T10191024  RH  096%=      5-min Rain = 0
KWA1 140858Z 08003KT M02/M02 A3035 RMK A01 T10191024  RH  096%=      5-min Rain = 0
KWA1 140859Z 09003KT M02/M02 A3035 RMK A01 T10191024  RH  096%=      5-min Rain = 0
KWA1 140900Z 08003KT M02/M03 A3035 RMK A01 T10201025  RH  097%=      5-min Rain = 0
KWA1 140901Z 08003KT M02/M02 A3035 RMK A01 T10191024  RH  097%=      5-min Rain = 0
KWA1 140902Z 07003KT M02/M03 A3035 RMK A01 T10201025  RH  097%=      5-min Rain = 0
KWA1 140903Z 07004KT M02/M03 A3035 RMK A01 T10201025  RH  097%=      5-min Rain = 0
KWA1 140904Z 07004KT M02/M03 A3035 RMK A01 T10201025  RH  097%=      5-min Rain = 0
KWA1 140905Z 07004KT M02/M03 A3035 RMK A01 T10201025  RH  097%=      5-min Rain = 0
KWA1 140906Z 07004KT M02/M03 A3035 RMK A01 T10211025  RH  097%=      5-min Rain = 0
KWA1 140907Z 07004KT M02/M03 A3035 RMK A01 T10211025  RH  097%=      5-min Rain = 0
KWA1 140908Z 07004KT M02/M03 A3035 RMK A01 T10211025  RH  097%=      5-min Rain = 0
KWA1 140909Z 07004KT M02/M03 A3035 RMK A01 T10211025  RH  097%=      5-min Rain = 0
KWA1 140910Z 07004KT M02/M03 A3035 RMK A01 T10211025  RH  097%=      5-min Rain = 0
KWA1 140911Z 07004KT M02/M03 A3035 RMK A01 T10211025  RH  097%=      5-min Rain = 0
KWA1 140912Z 07004KT M02/M03 A3035 RMK A01 T10211025  RH  097%=      5-min Rain = 0
KWA1 140913Z 07003KT M02/M03 A3035 RMK A01 T10211026  RH  097%=      5-min Rain = 0
KWA1 140914Z 07003KT M02/M03 A3035 RMK A01 T10221026  RH  097%=      5-min Rain = 0
KWA1 140915Z 08003KT M02/M03 A3035 RMK A01 T10211026  RH  097%=      5-min Rain = 0
KWA1 140916Z 08003KT M02/M03 A3035 RMK A01 T10221026  RH  097%=      5-min Rain = 0
KWA1 140917Z 08003KT M02/M03 A3035 RMK A01 T10221026  RH  097%=      5-min Rain = 0
KWA1 140918Z 08003KT M02/M03 A3035 RMK A01 T10221026  RH  097%=      5-min Rain = 0
KWA1 140919Z 08003KT M02/M03 A3035 RMK A01 T10221026  RH  097%=      5-min Rain = 0
KWA1 140920Z 08003KT M02/M03 A3035 RMK A01 T10221026  RH  097%=      5-min Rain = 0
KWA1 140921Z 08003KT M02/M03 A3035 RMK A01 T10221026  RH  097%=      5-min Rain = 0
KWA1 140922Z 08003KT M02/M03 A3035 RMK A01 T10231027  RH  097%=      5-min Rain = 0
KWA1 140923Z 08003KT M02/M03 A3035 RMK A01 T10231027  RH  097%=      5-min Rain = 0
KWA1 140924Z 08003KT M02/M03 A3035 RMK A01 T10231027  RH  097%=      5-min Rain = 0
KWA1 140925Z 09002KT M02/M03 A3035 RMK A01 T10231027  RH  097%=      5-min Rain = 0
KWA1 140926Z 09002KT M02/M03 A3035 RMK A01 T10231027  RH  097%=      5-min Rain = 0
KWA1 140927Z 09002KT M02/M03 A3035 RMK A01 T10231027  RH  097%=      5-min Rain = 0
KWA1 140928Z 09002KT M02/M03 A3035 RMK A01 T10231027  RH  097%=      5-min Rain = 0
KWA1 140929Z 09002KT M02/M03 A3035 RMK A01 T10231027  RH  097%=      5-min Rain = 0
KWA1 140930Z 07002KT M02/M03 A3035 RMK A01 T10231027  RH  097%=      5-min Rain = 0
KWA1 140931Z 06003KT M02/M03 A3035 RMK A01 T10231028  RH  097%=      5-min Rain = 0
KWA1 140932Z 06003KT M02/M03 A3035 RMK A01 T10241028  RH  097%=      5-min Rain = 0
KWA1 140933Z 06003KT M03/M03 A3035 RMK A01 T10251029  RH  097%=      5-min Rain = 0
KWA1 140934Z 06003KT M03/M03 A3035 RMK A01 T10251029  RH  097%=      5-min Rain = 0
KWA1 140935Z 06002KT M03/M03 A3035 RMK A01 T10251029  RH  097%=      5-min Rain = 0
KWA1 140936Z 06002KT M03/M03 A3035 RMK A01 T10251029  RH  097%=      5-min Rain = 0
KWA1 140937Z 07002KT M03/M03 A3035 RMK A01 T10251029  RH  097%=      5-min Rain = 0
KWA1 140938Z 08002KT M03/M03 A3035 RMK A01 T10251029  RH  097%=      5-min Rain = 0
KWA1 140939Z 09002KT M03/M03 A3035 RMK A01 T10251029  RH  097%=      5-min Rain = 0
KWA1 140940Z 09002KT M03/M03 A3035 RMK A01 T10261030  RH  097%=      5-min Rain = 0
KWA1 140941Z 09002KT M03/M03 A3035 RMK A01 T10251029  RH  097%=      5-min Rain = 0
KWA1 140942Z 08002KT M03/M03 A3035 RMK A01 T10251029  RH  097%=      5-min Rain = 0
KWA1 140943Z 08002KT M03/M03 A3035 RMK A01 T10251028  RH  097%=      5-min Rain = 0
KWA1 140944Z 07002KT M03/M03 A3035 RMK A01 T10251028  RH  097%=      5-min Rain = 0
KWA1 140945Z 07002KT M02/M03 A3035 RMK A01 T10241028  RH  097%=      5-min Rain = 0
KWA1 140946Z 08002KT M02/M03 A3035 RMK A01 T10241028  RH  097%=      5-min Rain = 0
KWA1 140947Z 08002KT M02/M03 A3035 RMK A01 T10241028  RH  097%=      5-min Rain = 0
KWA1 140948Z 08002KT M02/M03 A3035 RMK A01 T10241028  RH  097%=      5-min Rain = 0
KWA1 140949Z 08002KT M02/M03 A3035 RMK A01 T10241028  RH  097%=      5-min Rain = 0
KWA1 140950Z 09002KT M02/M03 A3035 RMK A01 T10241028  RH  097%=      5-min Rain = 0
KWA1 140951Z 09002KT M02/M03 A3035 RMK A01 T10241028  RH  097%=      5-min Rain = 0
KWA1 140952Z 09002KT M02/M03 A3036 RMK A01 T10241028  RH  097%=      5-min Rain = 0
KWA1 140953Z 10002KT M02/M03 A3036 RMK A01 T10241028  RH  097%=      5-min Rain = 0
KWA1 140954Z 10002KT M02/M03 A3036 RMK A01 T10241028  RH  098%=      5-min Rain = 0
KWA1 140955Z 10002KT M02/M03 A3036 RMK A01 T10241028  RH  098%=      5-min Rain = 0
KWA1 140956Z 12002KT M02/M03 A3036 RMK A01 T10241028  RH  097%=      5-min Rain = 0
KWA1 140957Z 13002KT M02/M03 A3036 RMK A01 T10241028  RH  097%=      5-min Rain = 0
KWA1 140958Z 13002KT M02/M03 A3035 RMK A01 T10241028  RH  097%=      5-min Rain = 0
KWA1 140959Z 13002KT M02/M03 A3035 RMK A01 T10241028  RH  098%=      5-min Rain = 0
KWA1 141000Z 14002KT M02/M03 A3036 RMK A01 T10241028  RH  097%=      5-min Rain = 0
KWA1 141001Z 14001KT M03/M03 A3036 RMK A01 T10251028  RH  097%=      5-min Rain = 0
KWA1 141002Z 13001KT M03/M03 A3036 RMK A01 T10251029  RH  097%=      5-min Rain = 0
KWA1 141003Z 13001KT M03/M03 A3036 RMK A01 T10261029  RH  097%=      5-min Rain = 0
KWA1 141004Z 13001KT M03/M03 A3036 RMK A01 T10261030  RH  097%=      5-min Rain = 0
KWA1 141005Z 13002KT M03/M03 A3035 RMK A01 T10261029  RH  097%=      5-min Rain = 0
KWA1 141006Z 14001KT M03/M03 A3035 RMK A01 T10251028  RH  098%=      5-min Rain = 0
KWA1 141007Z 13001KT M02/M03 A3035 RMK A01 T10241027  RH  098%=      5-min Rain = 0
KWA1 141008Z 13001KT M02/M03 A3035 RMK A01 T10241027  RH  098%=      5-min Rain = 0
KWA1 141009Z 13002KT M02/M03 A3035 RMK A01 T10241027  RH  098%=      5-min Rain = 0
KWA1 141010Z 13002KT M02/M03 A3035 RMK A01 T10241027  RH  098%=      5-min Rain = 0
KWA1 141011Z 13002KT M02/M03 A3036 RMK A01 T10241027  RH  098%=      5-min Rain = 0
KWA1 141012Z 14002KT M02/M03 A3036 RMK A01 T10241027  RH  098%=      5-min Rain = 0
KWA1 141013Z 14002KT M02/M03 A3036 RMK A01 T10241027  RH  098%=      5-min Rain = 0
KWA1 141014Z 14002KT M02/M03 A3036 RMK A01 T10241027  RH  098%=      5-min Rain = 0
KWA1 141015Z 13002KT M02/M03 A3036 RMK A01 T10241027  RH  098%=      5-min Rain = 0
KWA1 141016Z 13002KT M02/M03 A3036 RMK A01 T10241027  RH  098%=      5-min Rain = 0
KWA1 141017Z 12001KT M02/M03 A3036 RMK A01 T10241027  RH  098%=      5-min Rain = 0
KWA1 141018Z 10001KT M02/M03 A3036 RMK A01 T10241028  RH  098%=      5-min Rain = 0
KWA1 141019Z 07001KT M03/M03 A3036 RMK A01 T10251029  RH  098%=      5-min Rain = 0
KWA1 141020Z 03001KT M03/M03 A3036 RMK A01 T10251028  RH  098%=      5-min Rain = 0
KWA1 141021Z 03001KT M03/M03 A3036 RMK A01 T10251028  RH  098%=      5-min Rain = 0
KWA1 141022Z 04001KT M03/M03 A3036 RMK A01 T10251028  RH  098%=      5-min Rain = 0
KWA1 141023Z 05001KT M03/M03 A3036 RMK A01 T10251028  RH  098%=      5-min Rain = 0
KWA1 141024Z 08002KT M03/M03 A3036 RMK A01 T10251028  RH  098%=      5-min Rain = 0
KWA1 141025Z 09002KT M02/M03 A3036 RMK A01 T10241027  RH  098%=      5-min Rain = 0
KWA1 141026Z 12003KT M02/M03 A3036 RMK A01 T10231025  RH  098%=      5-min Rain = 0
KWA1 141027Z 12002KT M02/M03 A3036 RMK A01 T10221025  RH  098%=      5-min Rain = 0
KWA1 141028Z 12002KT M02/M03 A3036 RMK A01 T10221025  RH  098%=      5-min Rain = 0
KWA1 141029Z 13003KT M02/M03 A3036 RMK A01 T10221025  RH  098%=      5-min Rain = 0
KWA1 141030Z 12003KT M02/M03 A3036 RMK A01 T10221025  RH  098%=      5-min Rain = 0
KWA1 141031Z 12003KT M02/M03 A3036 RMK A01 T10221025  RH  098%=      5-min Rain = 0
KWA1 141032Z 11003KT M02/M03 A3036 RMK A01 T10221025  RH  098%=      5-min Rain = 0
KWA1 141033Z 10003KT M02/M03 A3036 RMK A01 T10221025  RH  098%=      5-min Rain = 0
KWA1 141034Z 09003KT M02/M03 A3036 RMK A01 T10221025  RH  098%=      5-min Rain = 0
KWA1 141035Z 09003KT M02/M03 A3036 RMK A01 T10221025  RH  098%=      5-min Rain = 0
KWA1 141036Z 09003KT M02/M03 A3036 RMK A01 T10221025  RH  098%=      5-min Rain = 0
KWA1 141037Z 08004KT M02/M03 A3036 RMK A01 T10221026  RH  098%=      5-min Rain = 0
KWA1 141038Z 08004KT M02/M03 A3036 RMK A01 T10231026  RH  097%=      5-min Rain = 0
KWA1 141039Z 09004KT M02/M03 A3036 RMK A01 T10231027  RH  097%=      5-min Rain = 0
KWA1 141040Z 09004KT M02/M03 A3036 RMK A01 T10231026  RH  097%=      5-min Rain = 0
KWA1 141041Z 09004KT M02/M03 A3035 RMK A01 T10231026  RH  097%=      5-min Rain = 0
KWA1 141042Z 09005KT M02/M03 A3035 RMK A01 T10231027  RH  097%=      5-min Rain = 0
KWA1 141043Z 09005KT M02/M03 A3035 RMK A01 T10231027  RH  097%=      5-min Rain = 0
KWA1 141044Z 09005KT M02/M03 A3035 RMK A01 T10231027  RH  097%=      5-min Rain = 0
KWA1 141045Z 09005KT M02/M03 A3035 RMK A01 T10231027  RH  097%=      5-min Rain = 0
KWA1 141046Z 08005KT M02/M03 A3035 RMK A01 T10231027  RH  097%=      5-min Rain = 0
KWA1 141047Z 08005KT M02/M03 A3035 RMK A01 T10231027  RH  097%=      5-min Rain = 0
KWA1 141048Z 08005KT M02/M03 A3035 RMK A01 T10231027  RH  097%=      5-min Rain = 0
KWA1 141049Z 08005KT M02/M03 A3035 RMK A01 T10241028  RH  097%=      5-min Rain = 0
KWA1 141050Z 08005KT M02/M03 A3035 RMK A01 T10241028  RH  097%=      5-min Rain = 0
KWA1 141051Z 08005KT M02/M03 A3035 RMK A01 T10241028  RH  097%=      5-min Rain = 0
KWA1 141052Z 08005KT M02/M03 A3035 RMK A01 T10241028  RH  097%=      5-min Rain = 0
KWA1 141053Z 07005KT M02/M03 A3035 RMK A01 T10241028  RH  097%=      5-min Rain = 0
KWA1 141054Z 06005KT M02/M03 A3036 RMK A01 T10241028  RH  097%=      5-min Rain = 0
KWA1 141055Z 05005KT M03/M03 A3036 RMK A01 T10251029  RH  097%=      5-min Rain = 0
KWA1 141056Z 06005KT M03/M03 A3036 RMK A01 T10261031  RH  097%=      5-min Rain = 0
KWA1 141057Z 06005KT M03/M03 A3036 RMK A01 T10271031  RH  097%=      5-min Rain = 0
KWA1 141058Z 06005KT M03/M03 A3036 RMK A01 T10271032  RH  097%=      5-min Rain = 0
KWA1 141059Z 07005KT M03/M03 A3036 RMK A01 T10271032  RH  097%=      5-min Rain = 0
KWA1 141100Z 07005KT M03/M03 A3036 RMK A01 T10271032  RH  097%=      5-min Rain = 0
KWA1 141101Z 08005KT M03/M03 A3036 RMK A01 T10261030  RH  097%=      5-min Rain = 0
KWA1 141102Z 09004KT M03/M03 A3036 RMK A01 T10251029  RH  097%=      5-min Rain = 0
KWA1 141103Z 09005KT M03/M03 A3036 RMK A01 T10251029  RH  097%=      5-min Rain = 0
KWA1 141104Z 10005KT M03/M03 A3036 RMK A01 T10251028  RH  097%=      5-min Rain = 0
KWA1 141105Z 10005KT M03/M03 A3036 RMK A01 T10251028  RH  097%=      5-min Rain = 0
KWA1 141106Z 10005KT M02/M03 A3036 RMK A01 T10241028  RH  097%=      5-min Rain = 0
KWA1 141107Z 09005KT M03/M03 A3036 RMK A01 T10251028  RH  097%=      5-min Rain = 0
KWA1 141108Z 09005KT M03/M03 A3036 RMK A01 T10251028  RH  097%=      5-min Rain = 0
KWA1 141109Z 09005KT M02/M03 A3036 RMK A01 T10241028  RH  097%=      5-min Rain = 0
KWA1 141110Z 08005KT M02/M03 A3036 RMK A01 T10241028  RH  097%=      5-min Rain = 0
KWA1 141111Z 08005KT M03/M03 A3036 RMK A01 T10251029  RH  097%=      5-min Rain = 0
KWA1 141112Z 08005KT M03/M03 A3036 RMK A01 T10251029  RH  097%=      5-min Rain = 0
KWA1 141113Z 08005KT M03/M03 A3036 RMK A01 T10251029  RH  097%=      5-min Rain = 0
KWA1 141114Z 08005KT M03/M03 A3036 RMK A01 T10251029  RH  097%=      5-min Rain = 0
KWA1 141115Z 08005KT M03/M03 A3036 RMK A01 T10251029  RH  097%=      5-min Rain = 0
KWA1 141116Z 08004KT M03/M03 A3036 RMK A01 T10251029  RH  097%=      5-min Rain = 0
KWA1 141117Z 08005KT M03/M03 A3035 RMK A01 T10251029  RH  097%=      5-min Rain = 0
KWA1 141118Z 08005KT M03/M03 A3035 RMK A01 T10251029  RH  097%=      5-min Rain = 0
KWA1 141119Z 08005KT M03/M03 A3035 RMK A01 T10251029  RH  097%=      5-min Rain = 0
KWA1 141120Z 08005KT M03/M03 A3035 RMK A01 T10251029  RH  097%=      5-min Rain = 0
KWA1 141121Z 08005KT M03/M03 A3035 RMK A01 T10251029  RH  097%=      5-min Rain = 0
KWA1 141122Z 09005KT M03/M03 A3035 RMK A01 T10251029  RH  097%=      5-min Rain = 0
KWA1 141123Z 09005KT M03/M03 A3036 RMK A01 T10251029  RH  097%=      5-min Rain = 0
KWA1 141124Z 09005KT M03/M03 A3035 RMK A01 T10251029  RH  097%=      5-min Rain = 0
KWA1 141125Z 08006KT M02/M03 A3035 RMK A01 T10241029  RH  097%=      5-min Rain = 0
KWA1 141126Z 08006KT M03/M03 A3036 RMK A01 T10251029  RH  097%=      5-min Rain = 0
KWA1 141127Z 08006KT M03/M03 A3035 RMK A01 T10251029  RH  097%=      5-min Rain = 0
KWA1 141128Z 08005KT M03/M03 A3035 RMK A01 T10251029  RH  097%=      5-min Rain = 0
KWA1 141129Z 08006KT M03/M03 A3035 RMK A01 T10251029  RH  097%=      5-min Rain = 0
KWA1 141130Z 08006KT M03/M03 A3035 RMK A01 T10251030  RH  097%=      5-min Rain = 0
KWA1 141131Z 08006KT M03/M03 A3035 RMK A01 T10251029  RH  097%=      5-min Rain = 0
KWA1 141132Z 08006KT M02/M03 A3035 RMK A01 T10241029  RH  097%=      5-min Rain = 0
KWA1 141133Z 08006KT M03/M03 A3035 RMK A01 T10251029  RH  097%=      5-min Rain = 0
KWA1 141134Z 08006KT M03/M03 A3035 RMK A01 T10251029  RH  097%=      5-min Rain = 0
KWA1 141135Z 08005KT M03/M03 A3035 RMK A01 T10251029  RH  097%=      5-min Rain = 0
KWA1 141136Z 09005KT M03/M03 A3036 RMK A01 T10251030  RH  097%=      5-min Rain = 0
KWA1 141137Z 09005KT M03/M03 A3036 RMK A01 T10251029  RH  097%=      5-min Rain = 0
KWA1 141138Z 10005KT M02/M03 A3036 RMK A01 T10241029  RH  097%=      5-min Rain = 0
KWA1 141139Z 10005KT M02/M03 A3036 RMK A01 T10231028  RH  097%=      5-min Rain = 0
KWA1 141140Z 10005KT M02/M03 A3036 RMK A01 T10231028  RH  097%=      5-min Rain = 0
KWA1 141141Z 10006KT M02/M03 A3036 RMK A01 T10231027  RH  097%=      5-min Rain = 0
KWA1 141142Z 10005KT M02/M03 A3036 RMK A01 T10221026  RH  097%=      5-min Rain = 0
KWA1 141143Z 10005KT M02/M03 A3036 RMK A01 T10211026  RH  097%=      5-min Rain = 0
KWA1 141144Z 09005KT M02/M03 A3036 RMK A01 T10211026  RH  097%=      5-min Rain = 0
KWA1 141145Z 09005KT M02/M03 A3036 RMK A01 T10211026  RH  096%=      5-min Rain = 0
KWA1 141146Z 09005KT M02/M03 A3036 RMK A01 T10211027  RH  096%=      5-min Rain = 0
KWA1 141147Z 09005KT M02/M03 A3036 RMK A01 T10211027  RH  096%=      5-min Rain = 0
KWA1 141148Z 09005KT M02/M03 A3036 RMK A01 T10221028  RH  096%=      5-min Rain = 0
KWA1 141149Z 09005KT M02/M03 A3036 RMK A01 T10221028  RH  096%=      5-min Rain = 0
KWA1 141150Z 09005KT M02/M03 A3036 RMK A01 T10231029  RH  096%=      5-min Rain = 0
KWA1 141151Z 09005KT M02/M03 A3036 RMK A01 T10231029  RH  096%=      5-min Rain = 0
KWA1 141152Z 09005KT M02/M03 A3036 RMK A01 T10231029  RH  096%=      5-min Rain = 0
KWA1 141153Z 09005KT M02/M03 A3036 RMK A01 T10231029  RH  096%=      5-min Rain = 0
KWA1 141154Z 09005KT M02/M03 A3036 RMK A01 T10231029  RH  096%=      5-min Rain = 0
KWA1 141155Z 09005KT M02/M03 A3036 RMK A01 T10231029  RH  096%=      5-min Rain = 0
KWA1 141156Z 09005KT M02/M03 A3036 RMK A01 T10231029  RH  096%=      5-min Rain = 0
KWA1 141157Z 09005KT M02/M03 A3036 RMK A01 T10231028  RH  096%=      5-min Rain = 0
KWA1 141158Z 09005KT M02/M03 A3036 RMK A01 T10231028  RH  096%=      5-min Rain = 0
KWA1 141159Z 09005KT M02/M03 A3036 RMK A01 T10231028  RH  096%=      5-min Rain = 0
KWA1 141200Z 09006KT M02/M03 A3036 RMK A01 T10221028  RH  096%=      5-min Rain = 0
KWA1 141201Z 09006KT M02/M03 A3036 RMK A01 T10221028  RH  096%=      5-min Rain = 0
KWA1 141202Z 08006KT M02/M03 A3036 RMK A01 T10221028  RH  096%=      5-min Rain = 0
KWA1 141203Z 08006KT M02/M03 A3036 RMK A01 T10221028  RH  096%=      5-min Rain = 0
KWA1 141204Z 08006KT M02/M03 A3036 RMK A01 T10221028  RH  096%=      5-min Rain = 0
KWA1 141205Z 08006KT M02/M03 A3036 RMK A01 T10221028  RH  096%=      5-min Rain = 0
KWA1 141206Z 08006KT M02/M03 A3036 RMK A01 T10221028  RH  096%=      5-min Rain = 0
KWA1 141207Z 08006KT M02/M03 A3036 RMK A01 T10221028  RH  096%=      5-min Rain = 0
KWA1 141208Z 08005KT M02/M03 A3036 RMK A01 T10221028  RH  096%=      5-min Rain = 0
KWA1 141209Z 08005KT M02/M03 A3036 RMK A01 T10221028  RH  096%=      5-min Rain = 0
KWA1 141210Z 09005KT M02/M03 A3036 RMK A01 T10221028  RH  096%=      5-min Rain = 0
KWA1 141211Z 09005KT M02/M03 A3036 RMK A01 T10221028  RH  096%=      5-min Rain = 0
KWA1 141212Z 09005KT M02/M03 A3036 RMK A01 T10221028  RH  096%=      5-min Rain = 0
KWA1 141213Z 09005KT M02/M03 A3036 RMK A01 T10221029  RH  096%=      5-min Rain = 0
KWA1 141214Z 09005KT M02/M03 A3036 RMK A01 T10231029  RH  096%=      5-min Rain = 0
KWA1 141215Z 09005KT M02/M03 A3036 RMK A01 T10231029  RH  096%=      5-min Rain = 0
KWA1 141216Z 09005KT M02/M03 A3036 RMK A01 T10231029  RH  096%=      5-min Rain = 0
KWA1 141217Z 08005KT M02/M03 A3036 RMK A01 T10231028  RH  096%=      5-min Rain = 0
KWA1 141218Z 08005KT M02/M03 A3036 RMK A01 T10231029  RH  096%=      5-min Rain = 0
KWA1 141219Z 08005KT M02/M03 A3036 RMK A01 T10231029  RH  096%=      5-min Rain = 0
KWA1 141220Z 08005KT M02/M03 A3036 RMK A01 T10231029  RH  096%=      5-min Rain = 0
KWA1 141221Z 08005KT M02/M03 A3036 RMK A01 T10231029  RH  096%=      5-min Rain = 0
KWA1 141222Z 07005KT M02/M03 A3036 RMK A01 T10231029  RH  096%=      5-min Rain = 0
KWA1 141223Z 07005KT M02/M03 A3036 RMK A01 T10231029  RH  096%=      5-min Rain = 0
KWA1 141224Z 07005KT M02/M03 A3036 RMK A01 T10231030  RH  096%=      5-min Rain = 0
KWA1 141225Z 07005KT M02/M03 A3036 RMK A01 T10241030  RH  096%=      5-min Rain = 0
KWA1 141226Z 08006KT M02/M03 A3036 RMK A01 T10241030  RH  096%=      5-min Rain = 0
KWA1 141227Z 08005KT M02/M03 A3036 RMK A01 T10241030  RH  096%=      5-min Rain = 0
KWA1 141228Z 08006KT M02/M03 A3036 RMK A01 T10241030  RH  096%=      5-min Rain = 0
KWA1 141229Z 08006KT M02/M03 A3036 RMK A01 T10241030  RH  096%=      5-min Rain = 0
KWA1 141230Z 08006KT M02/M03 A3036 RMK A01 T10241030  RH  096%=      5-min Rain = 0
KWA1 141231Z 08006KT M03/M03 A3036 RMK A01 T10251031  RH  096%=      5-min Rain = 0
KWA1 141232Z 08006KT M03/M03 A3036 RMK A01 T10251031  RH  096%=      5-min Rain = 0
KWA1 141233Z 08006KT M03/M03 A3036 RMK A01 T10251031  RH  096%=      5-min Rain = 0
KWA1 141234Z 08006KT M03/M03 A3036 RMK A01 T10251031  RH  096%=      5-min Rain = 0
KWA1 141235Z 08005KT M03/M03 A3036 RMK A01 T10251031  RH  096%=      5-min Rain = 0
KWA1 141236Z 08005KT M03/M03 A3036 RMK A01 T10251031  RH  096%=      5-min Rain = 0
KWA1 141237Z 07005KT M03/M03 A3036 RMK A01 T10251031  RH  096%=      5-min Rain = 0
KWA1 141238Z 07006KT M03/M03 A3036 RMK A01 T10251031  RH  096%=      5-min Rain = 0
KWA1 141239Z 06006KT M03/M03 A3036 RMK A01 T10251031  RH  096%=      5-min Rain = 0
KWA1 141240Z 06006KT M03/M03 A3036 RMK A01 T10251031  RH  096%=      5-min Rain = 0
KWA1 141241Z 05005KT M03/M03 A3036 RMK A01 T10251031  RH  096%=      5-min Rain = 0
KWA1 141242Z 05006KT M03/M03 A3036 RMK A01 T10251031  RH  096%=      5-min Rain = 0
KWA1 141243Z 05005KT M03/M03 A3037 RMK A01 T10261032  RH  096%=      5-min Rain = 0
KWA1 141244Z 06005KT M03/M03 A3037 RMK A01 T10261032  RH  096%=      5-min Rain = 0
KWA1 141245Z 05006KT M03/M03 A3037 RMK A01 T10261032  RH  096%=      5-min Rain = 0
KWA1 141246Z 05006KT M03/M03 A3037 RMK A01 T10271033  RH  096%=      5-min Rain = 0
KWA1 141247Z 05006KT M03/M03 A3037 RMK A01 T10271033  RH  096%=      5-min Rain = 0
KWA1 141248Z 05005KT M03/M03 A3037 RMK A01 T10271033  RH  096%=      5-min Rain = 0
KWA1 141249Z 05005KT M03/M03 A3037 RMK A01 T10281033  RH  096%=      5-min Rain = 0
KWA1 141250Z 05005KT M03/M03 A3037 RMK A01 T10281034  RH  096%=      5-min Rain = 0
KWA1 141251Z 05005KT M03/M03 A3037 RMK A01 T10281033  RH  096%=      5-min Rain = 0
KWA1 141252Z 05005KT M03/M03 A3037 RMK A01 T10281034  RH  096%=      5-min Rain = 0
KWA1 141253Z 05005KT M03/M03 A3037 RMK A01 T10291034  RH  096%=      5-min Rain = 0
KWA1 141254Z 05005KT M03/M03 A3037 RMK A01 T10291034  RH  096%=      5-min Rain = 0
KWA1 141255Z 05005KT M03/M03 A3037 RMK A01 T10291034  RH  096%=      5-min Rain = 0
KWA1 141256Z 05005KT M03/M03 A3037 RMK A01 T10301034  RH  096%=      5-min Rain = 0
KWA1 141257Z 05006KT M03/M04 A3037 RMK A01 T10301035  RH  096%=      5-min Rain = 0
KWA1 141258Z 05006KT M03/M04 A3037 RMK A01 T10301035  RH  097%=      5-min Rain = 0
KWA1 141259Z 05006KT M03/M04 A3037 RMK A01 T10311035  RH  097%=      5-min Rain = 0
KWA1 141300Z 06006KT M03/M04 A3037 RMK A01 T10301035  RH  097%=      5-min Rain = 0
KWA1 141301Z 06006KT M03/M04 A3037 RMK A01 T10311035  RH  097%=      5-min Rain = 0
KWA1 141302Z 06006KT M03/M04 A3037 RMK A01 T10311035  RH  097%=      5-min Rain = 0
KWA1 141303Z 07005KT M03/M04 A3037 RMK A01 T10311035  RH  097%=      5-min Rain = 0
KWA1 141304Z 07006KT M03/M04 A3037 RMK A01 T10311035  RH  097%=      5-min Rain = 0
KWA1 141305Z 07005KT M03/M04 A3037 RMK A01 T10301035  RH  097%=      5-min Rain = 0
KWA1 141306Z 06005KT M03/M04 A3037 RMK A01 T10311035  RH  097%=      5-min Rain = 0
KWA1 141307Z 06005KT M03/M04 A3037 RMK A01 T10311035  RH  097%=      5-min Rain = 0
KWA1 141308Z 06005KT M03/M04 A3038 RMK A01 T10311035  RH  097%=      5-min Rain = 0
KWA1 141309Z 06005KT M03/M04 A3038 RMK A01 T10311035  RH  097%=      5-min Rain = 0
KWA1 141310Z 06005KT M03/M04 A3038 RMK A01 T10311035  RH  097%=      5-min Rain = 0
KWA1 141311Z 06006KT M03/M04 A3038 RMK A01 T10311036  RH  097%=      5-min Rain = 0
KWA1 141312Z 05006KT M03/M04 A3038 RMK A01 T10311036  RH  097%=      5-min Rain = 0
KWA1 141313Z 06005KT M03/M04 A3038 RMK A01 T10311036  RH  097%=      5-min Rain = 0
KWA1 141314Z 06005KT M03/M04 A3038 RMK A01 T10311035  RH  097%=      5-min Rain = 0
KWA1 141315Z 06005KT M03/M04 A3038 RMK A01 T10311035  RH  097%=      5-min Rain = 0
KWA1 141316Z 06005KT M03/M04 A3038 RMK A01 T10311036  RH  097%=      5-min Rain = 0
KWA1 141317Z 07004KT M03/M04 A3038 RMK A01 T10311035  RH  097%=      5-min Rain = 0
KWA1 141318Z 07004KT M03/M04 A3038 RMK A01 T10311036  RH  097%=      5-min Rain = 0
KWA1 141319Z 07005KT M03/M04 A3038 RMK A01 T10311035  RH  097%=      5-min Rain = 0
KWA1 141320Z 07005KT M03/M03 A3038 RMK A01 T10301034  RH  097%=      5-min Rain = 0
KWA1 141321Z 07005KT M03/M03 A3038 RMK A01 T10311034  RH  097%=      5-min Rain = 0
KWA1 141322Z 07005KT M03/M04 A3038 RMK A01 T10311035  RH  097%=      5-min Rain = 0
KWA1 141323Z 07005KT M03/M04 A3038 RMK A01 T10311035  RH  097%=      5-min Rain = 0
KWA1 141324Z 07005KT M03/M04 A3038 RMK A01 T10311035  RH  097%=      5-min Rain = 0
KWA1 141325Z 07005KT M03/M03 A3038 RMK A01 T10301034  RH  097%=      5-min Rain = 0
KWA1 141326Z 07005KT M03/M04 A3038 RMK A01 T10311035  RH  097%=      5-min Rain = 0
KWA1 141327Z 06005KT M03/M04 A3038 RMK A01 T10311035  RH  097%=      5-min Rain = 0
KWA1 141328Z 06004KT M03/M04 A3038 RMK A01 T10311035  RH  097%=      5-min Rain = 0
KWA1 141329Z 06004KT M03/M04 A3038 RMK A01 T10311035  RH  097%=      5-min Rain = 0
KWA1 141330Z 06004KT M03/M04 A3038 RMK A01 T10311035  RH  097%=      5-min Rain = 0
KWA1 141331Z 06004KT M03/M04 A3038 RMK A01 T10311035  RH  097%=      5-min Rain = 0
KWA1 141332Z 06004KT M03/M04 A3038 RMK A01 T10311035  RH  097%=      5-min Rain = 0
KWA1 141333Z 06004KT M03/M04 A3038 RMK A01 T10311035  RH  097%=      5-min Rain = 0
KWA1 141334Z 06003KT M03/M04 A3038 RMK A01 T10311035  RH  097%=      5-min Rain = 0
KWA1 141335Z 06003KT M03/M03 A3039 RMK A01 T10301034  RH  097%=      5-min Rain = 0
KWA1 141336Z 06003KT M03/M04 A3039 RMK A01 T10301035  RH  097%=      5-min Rain = 0
KWA1 141337Z 06003KT M03/M03 A3039 RMK A01 T10301034  RH  097%=      5-min Rain = 0
KWA1 141338Z 05003KT M03/M03 A3039 RMK A01 T10301034  RH  097%=      5-min Rain = 0
KWA1 141339Z 05003KT M03/M03 A3039 RMK A01 T10301034  RH  097%=      5-min Rain = 0
KWA1 141340Z 05004KT M03/M03 A3039 RMK A01 T10301034  RH  097%=      5-min Rain = 0
KWA1 141341Z 05004KT M03/M03 A3039 RMK A01 T10301034  RH  097%=      5-min Rain = 0
KWA1 141342Z 05004KT M03/M03 A3039 RMK A01 T10301034  RH  097%=      5-min Rain = 0
KWA1 141343Z 05004KT M03/M03 A3039 RMK A01 T10301034  RH  097%=      5-min Rain = 0
KWA1 141344Z 05004KT M03/M03 A3039 RMK A01 T10291034  RH  097%=      5-min Rain = 0
KWA1 141345Z 05004KT M03/M03 A3039 RMK A01 T10291034  RH  097%=      5-min Rain = 0
KWA1 141346Z 05005KT M03/M03 A3039 RMK A01 T10281033  RH  097%=      5-min Rain = 0
KWA1 141347Z 05005KT M03/M03 A3039 RMK A01 T10281032  RH  097%=      5-min Rain = 0
KWA1 141348Z 05004KT M03/M03 A3039 RMK A01 T10271032  RH  097%=      5-min Rain = 0
KWA1 141349Z 06004KT M03/M03 A3039 RMK A01 T10271032  RH  097%=      5-min Rain = 0
KWA1 141350Z 06004KT M03/M03 A3039 RMK A01 T10271032  RH  097%=      5-min Rain = 0
KWA1 141351Z 06004KT M03/M03 A3039 RMK A01 T10261031  RH  096%=      5-min Rain = 0
KWA1 141352Z 06004KT M03/M03 A3039 RMK A01 T10261031  RH  096%=      5-min Rain = 0
KWA1 141353Z 06003KT M03/M03 A3039 RMK A01 T10261031  RH  096%=      5-min Rain = 0
KWA1 141354Z 06003KT M03/M03 A3039 RMK A01 T10251030  RH  096%=      5-min Rain = 0
KWA1 141355Z 06003KT M03/M03 A3039 RMK A01 T10251030  RH  096%=      5-min Rain = 0
KWA1 141356Z 06003KT M03/M03 A3039 RMK A01 T10251030  RH  096%=      5-min Rain = 0
KWA1 141357Z 06003KT M02/M03 A3039 RMK A01 T10241029  RH  096%=      5-min Rain = 0
KWA1 141358Z 06003KT M02/M03 A3039 RMK A01 T10241029  RH  096%=      5-min Rain = 0
KWA1 141359Z 06003KT M02/M03 A3039 RMK A01 T10231028  RH  096%=      5-min Rain = 0
KWA1 141400Z 06003KT M02/M03 A3039 RMK A01 T10231028  RH  096%=      5-min Rain = 0
KWA1 141401Z 06003KT M02/M03 A3039 RMK A01 T10231028  RH  096%=      5-min Rain = 0
KWA1 141402Z 06003KT M02/M03 A3039 RMK A01 T10221028  RH  096%=      5-min Rain = 0
KWA1 141403Z 06003KT M02/M03 A3039 RMK A01 T10221028  RH  096%=      5-min Rain = 0
KWA1 141404Z 06003KT M02/M03 A3039 RMK A01 T10221028  RH  096%=      5-min Rain = 0
KWA1 141405Z 07003KT M02/M03 A3039 RMK A01 T10211028  RH  096%=      5-min Rain = 0
KWA1 141406Z 07003KT M02/M03 A304 RMK A01 T10211028  RH  095%=      5-min Rain = 0
KWA1 141407Z 07002KT M02/M03 A3039 RMK A01 T10211028  RH  095%=      5-min Rain = 0
KWA1 141408Z 07002KT M02/M03 A3039 RMK A01 T10211027  RH  095%=      5-min Rain = 0
KWA1 141409Z 07002KT M02/M03 A3039 RMK A01 T10201027  RH  095%=      5-min Rain = 0
KWA1 141410Z 06002KT M02/M03 A3039 RMK A01 T10201027  RH  095%=      5-min Rain = 0
KWA1 141411Z 06003KT M02/M03 A3039 RMK A01 T10201027  RH  095%=      5-min Rain = 0
KWA1 141412Z 06003KT M02/M03 A304 RMK A01 T10191026  RH  095%=      5-min Rain = 0
KWA1 141413Z 06003KT M02/M03 A304 RMK A01 T10181026  RH  095%=      5-min Rain = 0
KWA1 141414Z 06003KT M02/M03 A304 RMK A01 T10181025  RH  095%=      5-min Rain = 0
KWA1 141415Z 06003KT M02/M03 A304 RMK A01 T10181025  RH  095%=      5-min Rain = 0
KWA1 141416Z 06003KT M02/M03 A3039 RMK A01 T10181025  RH  095%=      5-min Rain = 0
KWA1 141417Z 06003KT M02/M03 A3039 RMK A01 T10181025  RH  095%=      5-min Rain = 0
KWA1 141418Z 06002KT M02/M03 A3039 RMK A01 T10171025  RH  095%=      5-min Rain = 0
KWA1 141419Z 06003KT M02/M02 A3039 RMK A01 T10171024  RH  095%=      5-min Rain = 0
KWA1 141420Z 06003KT M02/M03 A3039 RMK A01 T10171025  RH  095%=      5-min Rain = 0
KWA1 141421Z 06003KT M02/M02 A3039 RMK A01 T10161024  RH  094%=      5-min Rain = 0
KWA1 141422Z 06003KT M02/M02 A3039 RMK A01 T10161024  RH  094%=      5-min Rain = 0
KWA1 141423Z 06002KT M02/M02 A3039 RMK A01 T10161024  RH  094%=      5-min Rain = 0
KWA1 141424Z 06003KT M02/M02 A3039 RMK A01 T10151023  RH  094%=      5-min Rain = 0
KWA1 141425Z 07002KT M02/M02 A3039 RMK A01 T10151023  RH  094%=      5-min Rain = 0
KWA1 141426Z 06002KT M02/M02 A3039 RMK A01 T10151023  RH  094%=      5-min Rain = 0
KWA1 141427Z 07002KT M02/M02 A3039 RMK A01 T10151022  RH  094%=      5-min Rain = 0
KWA1 141428Z 06002KT M01/M02 A3039 RMK A01 T10141022  RH  094%=      5-min Rain = 0
KWA1 141429Z 06002KT M01/M02 A3039 RMK A01 T10131021  RH  095%=      5-min Rain = 0
KWA1 141430Z 04002KT M01/M02 A304 RMK A01 T10131021  RH  095%=      5-min Rain = 0
KWA1 141431Z 03002KT M01/M02 A304 RMK A01 T10131022  RH  094%=      5-min Rain = 0
KWA1 141432Z 03002KT M01/M02 A304 RMK A01 T10141023  RH  094%=      5-min Rain = 0
KWA1 141433Z 04002KT M01/M02 A304 RMK A01 T10141023  RH  094%=      5-min Rain = 0
KWA1 141434Z 04002KT M01/M02 A304 RMK A01 T10141022  RH  094%=      5-min Rain = 0
KWA1 141435Z 04002KT M01/M02 A304 RMK A01 T10141021  RH  095%=      5-min Rain = 0
KWA1 141436Z 04003KT M01/M02 A304 RMK A01 T10131021  RH  095%=      5-min Rain = 0
KWA1 141437Z 03003KT M01/M02 A304 RMK A01 T10131020  RH  095%=      5-min Rain = 0
KWA1 141438Z 03003KT M01/M02 A304 RMK A01 T10131021  RH  095%=      5-min Rain = 0
KWA1 141439Z 04003KT M01/M02 A304 RMK A01 T10141022  RH  094%=      5-min Rain = 0
KWA1 141440Z 03003KT M02/M02 A304 RMK A01 T10151023  RH  094%=      5-min Rain = 0
KWA1 141441Z 03002KT M02/M02 A304 RMK A01 T10151022  RH  095%=      5-min Rain = 0
KWA1 141442Z 03002KT M02/M02 A304 RMK A01 T10151022  RH  095%=      5-min Rain = 0
KWA1 141443Z 05002KT M01/M02 A304 RMK A01 T10141021  RH  095%=      5-min Rain = 0
KWA1 141444Z 06002KT M01/M02 A304 RMK A01 T10131020  RH  095%=      5-min Rain = 0
KWA1 141445Z 06002KT M01/M02 A304 RMK A01 T10131019  RH  095%=      5-min Rain = 0
KWA1 141446Z 05001KT M01/M02 A304 RMK A01 T10121018  RH  095%=      5-min Rain = 0
KWA1 141447Z 07002KT M01/M02 A304 RMK A01 T10111017  RH  095%=      5-min Rain = 0
KWA1 141448Z 07002KT M01/M02 A304 RMK A01 T10101017  RH  095%=      5-min Rain = 0
KWA1 141449Z 07002KT M01/M02 A304 RMK A01 T10081015  RH  095%=      5-min Rain = 0
KWA1 141450Z 07002KT M01/M02 A304 RMK A01 T10081015  RH  095%=      5-min Rain = 0
KWA1 141451Z 05002KT M01/M02 A304 RMK A01 T10071015  RH  095%=      5-min Rain = 0
KWA1 141452Z 05003KT M01/M02 A304 RMK A01 T10061015  RH  094%=      5-min Rain = 0
KWA1 141453Z 05003KT M01/M02 A304 RMK A01 T10071016  RH  094%=      5-min Rain = 0
KWA1 141454Z 05003KT M01/M02 A304 RMK A01 T10071016  RH  093%=      5-min Rain = 0
KWA1 141455Z 05003KT M01/M02 A304 RMK A01 T10071017  RH  093%=      5-min Rain = 0
KWA1 141456Z 05004KT M01/M02 A304 RMK A01 T10071016  RH  093%=      5-min Rain = 0
KWA1 141457Z 05003KT M01/M02 A304 RMK A01 T10061016  RH  093%=      5-min Rain = 0
KWA1 141458Z 05003KT M01/M02 A304 RMK A01 T10061016  RH  093%=      5-min Rain = 0
KWA1 141459Z 06003KT M01/M02 A304 RMK A01 T10061016  RH  093%=      5-min Rain = 0
KWA1 141500Z 06002KT M01/M02 A304 RMK A01 T10051015  RH  093%=      5-min Rain = 0
KWA1 141501Z 07002KT M00/M01 A304 RMK A01 T10041014  RH  093%=      5-min Rain = 0
KWA1 141502Z 07002KT M00/M01 A304 RMK A01 T10031013  RH  093%=      5-min Rain = 0
KWA1 141503Z 10002KT M00/M01 A304 RMK A01 T10031013  RH  093%=      5-min Rain = 0
KWA1 141504Z 09002KT M00/M01 A304 RMK A01 T10021013  RH  092%=      5-min Rain = 0
KWA1 141505Z 08002KT 00/01 A304 RMK A01 T00-00-11  RH  093%=      5-min Rain = 0
KWA1 141506Z 13003KT 00/M01 A304 RMK A01 T00011010  RH  092%=      5-min Rain = 0
KWA1 141507Z 14003KT 00/M01 A304 RMK A01 T00011010  RH  092%=      5-min Rain = 0
KWA1 141508Z 13003KT 00/M01 A304 RMK A01 T00021011  RH  091%=      5-min Rain = 0
KWA1 141509Z 14004KT 00/M01 A304 RMK A01 T00021013  RH  090%=      5-min Rain = 0
KWA1 141510Z 15003KT 00/M02 A304 RMK A01 T00011016  RH  088%=      5-min Rain = 0
KWA1 141511Z 15003KT 00/M02 A304 RMK A01 T00011016  RH  088%=      5-min Rain = 0
KWA1 141512Z 15001KT 00/M02 A304 RMK A01 T00021015  RH  088%=      5-min Rain = 0
KWA1 141513Z 17002KT 00/M01 A3041 RMK A01 T00031014  RH  089%=      5-min Rain = 0
KWA1 141514Z 17003KT 00/M01 A3041 RMK A01 T00021014  RH  089%=      5-min Rain = 0
KWA1 141515Z 18003KT 00/M02 A3041 RMK A01 T00021015  RH  088%=      5-min Rain = 0
KWA1 141516Z 16002KT 00/02 A3041 RMK A01 T00000-17  RH  088%=      5-min Rain = 0
KWA1 141517Z 14003KT 00/02 A3041 RMK A01 T00000-16  RH  089%=      5-min Rain = 0
KWA1 141518Z 14003KT 00/M01 A3041 RMK A01 T00011014  RH  090%=      5-min Rain = 0
KWA1 141519Z 18003KT 00/02 A3041 RMK A01 T00-00-16  RH  089%=      5-min Rain = 0
KWA1 141520Z 18003KT 00/02 A3041 RMK A01 T00000-15  RH  090%=      5-min Rain = 0
KWA1 141521Z 16004KT 00/01 A3041 RMK A01 T00000-14  RH  090%=      5-min Rain = 0
KWA1 141522Z 16004KT 00/M01 A3041 RMK A01 T00011014  RH  090%=      5-min Rain = 0
KWA1 141523Z 15003KT 00/M01 A3041 RMK A01 T00021013  RH  090%=      5-min Rain = 0
KWA1 141524Z 16004KT 00/M01 A3041 RMK A01 T00041012  RH  090%=      5-min Rain = 0
KWA1 141525Z 16004KT 01/M01 A3041 RMK A01 T00051011  RH  089%=      5-min Rain = 0
KWA1 141526Z 17004KT 01/M01 A3041 RMK A01 T00051012  RH  088%=      5-min Rain = 0
KWA1 141527Z 15003KT 01/M01 A3041 RMK A01 T00051012  RH  088%=      5-min Rain = 0
KWA1 141528Z 17004KT 00/M01 A3041 RMK A01 T00041013  RH  088%=      5-min Rain = 0
KWA1 141529Z 16003KT 00/M01 A3041 RMK A01 T00041013  RH  088%=      5-min Rain = 0
KWA1 141530Z 15003KT 01/M01 A3041 RMK A01 T00051013  RH  088%=      5-min Rain = 0
KWA1 141531Z 15004KT 01/M01 A3041 RMK A01 T00071009  RH  089%=      5-min Rain = 0
KWA1 141532Z 13002KT 01/M01 A3041 RMK A01 T00061014  RH  087%=      5-min Rain = 0
KWA1 141533Z 14002KT 01/M02 A3041 RMK A01 T00051015  RH  087%=      5-min Rain = 0
KWA1 141534Z 14002KT 01/M01 A3041 RMK A01 T00061014  RH  087%=      5-min Rain = 0
KWA1 141535Z 10002KT 01/M01 A3041 RMK A01 T00091008  RH  088%=      5-min Rain = 0
KWA1 141536Z 11002KT 01/M01 A3041 RMK A01 T00111007  RH  088%=      5-min Rain = 0
KWA1 141537Z 13004KT 01/M01 A3041 RMK A01 T00121009  RH  086%=      5-min Rain = 0
KWA1 141538Z 14004KT 01/M01 A3041 RMK A01 T00121009  RH  086%=      5-min Rain = 0
KWA1 141539Z 13004KT 01/M01 A3041 RMK A01 T00111010  RH  086%=      5-min Rain = 0
KWA1 141540Z 13004KT 01/M01 A3041 RMK A01 T00111010  RH  086%=      5-min Rain = 0
KWA1 141541Z 14004KT 01/M01 A3041 RMK A01 T00101010  RH  086%=      5-min Rain = 0
KWA1 141542Z 13003KT 01/M01 A3041 RMK A01 T00111011  RH  086%=      5-min Rain = 0
KWA1 141543Z 14003KT 01/M01 A3041 RMK A01 T00111011  RH  086%=      5-min Rain = 0
KWA1 141544Z 13003KT 01/M01 A3041 RMK A01 T00121010  RH  086%=      5-min Rain = 0
KWA1 141545Z 14004KT 01/M01 A3041 RMK A01 T00131008  RH  086%=      5-min Rain = 0
KWA1 141546Z 15003KT 01/M01 A3041 RMK A01 T00121012  RH  084%=      5-min Rain = 0
KWA1 141547Z 15003KT 01/M01 A3041 RMK A01 T00121013  RH  084%=      5-min Rain = 0
KWA1 141548Z 13003KT 01/M01 A3041 RMK A01 T00121012  RH  084%=      5-min Rain = 0
KWA1 141549Z 13002KT 01/M01 A3041 RMK A01 T00131012  RH  084%=      5-min Rain = 0
KWA1 141550Z 15002KT 01/M01 A3041 RMK A01 T00141009  RH  085%=      5-min Rain = 0
KWA1 141551Z 16002KT 02/M01 A3041 RMK A01 T00151009  RH  085%=      5-min Rain = 0
KWA1 141552Z 16003KT 02/M01 A3041 RMK A01 T00161008  RH  084%=      5-min Rain = 0
KWA1 141553Z 15003KT 02/M01 A3041 RMK A01 T00161010  RH  083%=      5-min Rain = 0
KWA1 141554Z 17003KT 02/M01 A3041 RMK A01 T00171006  RH  085%=      5-min Rain = 0
KWA1 141555Z 17003KT 02/M01 A3041 RMK A01 T00171008  RH  084%=      5-min Rain = 0
KWA1 141556Z 16002KT 02/M01 A3041 RMK A01 T00151010  RH  083%=      5-min Rain = 0
KWA1 141557Z 16002KT 02/M01 A3041 RMK A01 T00151010  RH  084%=      5-min Rain = 0
KWA1 141558Z 17001KT 01/M01 A3041 RMK A01 T00141011  RH  083%=      5-min Rain = 0
KWA1 141559Z 16001KT 02/M01 A3041 RMK A01 T00151011  RH  083%=      5-min Rain = 0
KWA1 141600Z 11001KT 02/M01 A3041 RMK A01 T00171007  RH  084%=      5-min Rain = 0
KWA1 141601Z 10001KT 02/M01 A3041 RMK A01 T00161010  RH  083%=      5-min Rain = 0
KWA1 141602Z 10000KT 02/M01 A3041 RMK A01 T00171009  RH  083%=      5-min Rain = 0
KWA1 141603Z 14001KT 02/M00 A3041 RMK A01 T00211004  RH  083%=      5-min Rain = 0
KWA1 141604Z 21001KT 02/M00 A3041 RMK A01 T00241002  RH  083%=      5-min Rain = 0
KWA1 141605Z 25001KT 03/M00 A3041 RMK A01 T00251004  RH  081%=      5-min Rain = 0
KWA1 141606Z 25001KT 03/00 A3041 RMK A01 T00270000  RH  083%=      5-min Rain = 0
KWA1 141607Z 24002KT 03/00 A3041 RMK A01 T00270000  RH  082%=      5-min Rain = 0
KWA1 141608Z 25002KT 02/M01 A3041 RMK A01 T00241006  RH  081%=      5-min Rain = 0
KWA1 141609Z 27002KT 02/M01 A3041 RMK A01 T00221006  RH  082%=      5-min Rain = 0
KWA1 141610Z 30001KT 02/M01 A3041 RMK A01 T00211005  RH  083%=      5-min Rain = 0
KWA1 141611Z 30002KT 02/M00 A3041 RMK A01 T00211003  RH  084%=      5-min Rain = 0
KWA1 141612Z 28001KT 02/M01 A3041 RMK A01 T00201006  RH  083%=      5-min Rain = 0
KWA1 141613Z 27001KT 02/M01 A3041 RMK A01 T00191006  RH  083%=      5-min Rain = 0
KWA1 141614Z 28001KT 02/M00 A3041 RMK A01 T00201004  RH  084%=      5-min Rain = 0
KWA1 141615Z 31001KT 02/M00 A3041 RMK A01 T00211003  RH  085%=      5-min Rain = 0
KWA1 141616Z 31002KT 02/M00 A3041 RMK A01 T00221001  RH  085%=      5-min Rain = 0
KWA1 141617Z 30001KT 02/M00 A3041 RMK A01 T00221004  RH  083%=      5-min Rain = 0
KWA1 141618Z 32001KT 02/M00 A3041 RMK A01 T00221003  RH  084%=      5-min Rain = 0
KWA1 141619Z 32002KT 02/M00 A3041 RMK A01 T00231003  RH  083%=      5-min Rain = 0
KWA1 141620Z 27001KT 02/M00 A3041 RMK A01 T00231004  RH  082%=      5-min Rain = 0
KWA1 141621Z 24002KT 02/M00 A3041 RMK A01 T00231003  RH  083%=      5-min Rain = 0
KWA1 141622Z 25002KT 02/M00 A3041 RMK A01 T00241001  RH  083%=      5-min Rain = 0
KWA1 141623Z 26001KT 03/M00 A304 RMK A01 T00261002  RH  082%=      5-min Rain = 0
KWA1 141624Z 35000KT 03/M00 A304 RMK A01 T00271001  RH  082%=      5-min Rain = 0
KWA1 141625Z 29002KT 03/M00 A304 RMK A01 T00281002  RH  081%=      5-min Rain = 0
KWA1 141626Z 28004KT 03/00 A304 RMK A01 T00280001  RH  082%=      5-min Rain = 0
KWA1 141627Z 30004KT 03/M00 A304 RMK A01 T00251001  RH  083%=      5-min Rain = 0
KWA1 141628Z 31004KT 02/M00 A304 RMK A01 T00231001  RH  084%=      5-min Rain = 0
KWA1 141629Z 31005KT 02/00 A304 RMK A01 T00220001  RH  086%=      5-min Rain = 0
KWA1 141630Z 31004KT 02/M00 A304 RMK A01 T00211001  RH  085%=      5-min Rain = 0
KWA1 141631Z 32001KT 02/M00 A304 RMK A01 T00201002  RH  085%=      5-min Rain = 0
KWA1 141632Z 36002KT 02/M00 A304 RMK A01 T00181004  RH  085%=      5-min Rain = 0
KWA1 141633Z 34003KT 02/M00 A304 RMK A01 T00181004  RH  086%=      5-min Rain = 0
KWA1 141634Z 34002KT 02/M00 A304 RMK A01 T00181002  RH  087%=      5-min Rain = 0
KWA1 141635Z 36003KT 02/M00 A304 RMK A01 T00181002  RH  087%=      5-min Rain = 0
KWA1 141636Z 00004KT 02/M00 A304 RMK A01 T00181002  RH  087%=      5-min Rain = 0
KWA1 141637Z 00004KT 02/M00 A304 RMK A01 T00191001  RH  087%=      5-min Rain = 0
KWA1 141638Z 01004KT 02/00 A304 RMK A01 T00200001  RH  087%=      5-min Rain = 0
KWA1 141639Z 35003KT 02/00 A304 RMK A01 T002100-0  RH  086%=      5-min Rain = 0
KWA1 141640Z 35002KT 02/M00 A304 RMK A01 T00211002  RH  085%=      5-min Rain = 0
KWA1 141641Z 33002KT 02/M00 A304 RMK A01 T00211002  RH  085%=      5-min Rain = 0
KWA1 141642Z 00000KT 02/M00 A304 RMK A01 T00211003  RH  084%=      5-min Rain = 0
KWA1 141643Z 36001KT 02/00 A304 RMK A01 T002300-0  RH  085%=      5-min Rain = 0
KWA1 141644Z 00000KT 02/00 A304 RMK A01 T002400-0  RH  084%=      5-min Rain = 0
KWA1 141645Z 00000KT 03/00 A304 RMK A01 T00250000  RH  084%=      5-min Rain = 0
KWA1 141646Z 29000KT 03/00 A304 RMK A01 T00270002  RH  083%=      5-min Rain = 0
KWA1 141647Z 31000KT 03/00 A304 RMK A01 T00290002  RH  083%=      5-min Rain = 0
KWA1 141648Z 32002KT 03/01 A304 RMK A01 T00310006  RH  084%=      5-min Rain = 0
KWA1 141649Z 32001KT 03/00 A304 RMK A01 T00310004  RH  082%=      5-min Rain = 0
KWA1 141650Z 33002KT 03/00 A304 RMK A01 T00300001  RH  082%=      5-min Rain = 0
KWA1 141651Z 33002KT 03/00 A304 RMK A01 T00290001  RH  082%=      5-min Rain = 0
KWA1 141652Z 34001KT 03/00 A304 RMK A01 T00290003  RH  083%=      5-min Rain = 0
KWA1 141653Z 32002KT 03/00 A304 RMK A01 T00300004  RH  083%=      5-min Rain = 0
KWA1 141654Z 31000KT 03/00 A304 RMK A01 T00310001  RH  081%=      5-min Rain = 0
KWA1 141655Z 32002KT 03/00 A304 RMK A01 T003000-0  RH  080%=      5-min Rain = 0
KWA1 141656Z 33002KT 03/00 A304 RMK A01 T003000-0  RH  081%=      5-min Rain = 0
KWA1 141657Z 34002KT 03/00 A304 RMK A01 T00300000  RH  081%=      5-min Rain = 0
KWA1 141658Z 35001KT 03/00 A304 RMK A01 T00310001  RH  081%=      5-min Rain = 0
KWA1 141659Z 03002KT 03/00 A3039 RMK A01 T00320004  RH  082%=      5-min Rain = 0
KWA1 141700Z 05003KT 03/01 A3039 RMK A01 T00340008  RH  083%=      5-min Rain = 0
KWA1 141701Z 06003KT 03/01 A3039 RMK A01 T00340006  RH  082%=      5-min Rain = 0
KWA1 141702Z 05003KT 03/01 A3039 RMK A01 T00340005  RH  081%=      5-min Rain = 0
KWA1 141703Z 03004KT 04/01 A3039 RMK A01 T00350007  RH  082%=      5-min Rain = 0
KWA1 141704Z 02003KT 04/01 A3039 RMK A01 T00360007  RH  081%=      5-min Rain = 0
KWA1 141705Z 06004KT 04/01 A3039 RMK A01 T00370011  RH  083%=      5-min Rain = 0
KWA1 141706Z 06005KT 04/01 A3039 RMK A01 T00380011  RH  083%=      5-min Rain = 0
KWA1 141707Z 06003KT 04/01 A3039 RMK A01 T00380009  RH  082%=      5-min Rain = 0
KWA1 141708Z 04003KT 04/01 A3039 RMK A01 T00370007  RH  081%=      5-min Rain = 0
KWA1 141709Z 04002KT 04/01 A3039 RMK A01 T00380007  RH  080%=      5-min Rain = 0
KWA1 141710Z 08002KT 04/01 A3039 RMK A01 T00370005  RH  079%=      5-min Rain = 0
KWA1 141711Z 04002KT 04/00 A3039 RMK A01 T00370004  RH  079%=      5-min Rain = 0
KWA1 141712Z 04003KT 04/01 A3039 RMK A01 T00390008  RH  080%=      5-min Rain = 0
KWA1 141713Z 02001KT 04/01 A3039 RMK A01 T00400009  RH  080%=      5-min Rain = 0
KWA1 141714Z 35001KT 04/01 A3039 RMK A01 T00420009  RH  079%=      5-min Rain = 0
KWA1 141715Z 03002KT 04/01 A3039 RMK A01 T00440013  RH  080%=      5-min Rain = 0
KWA1 141716Z 05005KT 05/01 A3039 RMK A01 T00450014  RH  080%=      5-min Rain = 0
KWA1 141717Z 06005KT 05/01 A3039 RMK A01 T00450012  RH  079%=      5-min Rain = 0
KWA1 141718Z 07004KT 04/01 A3039 RMK A01 T00440012  RH  080%=      5-min Rain = 0
KWA1 141719Z 05003KT 04/01 A3039 RMK A01 T00440009  RH  078%=      5-min Rain = 0
KWA1 141720Z 06002KT 04/01 A3039 RMK A01 T00440010  RH  078%=      5-min Rain = 0
KWA1 141721Z 07005KT 05/01 A3039 RMK A01 T00460013  RH  079%=      5-min Rain = 0
KWA1 141722Z 06004KT 05/01 A3039 RMK A01 T00460011  RH  078%=      5-min Rain = 0
KWA1 141723Z 03002KT 05/01 A3039 RMK A01 T00460010  RH  078%=      5-min Rain = 0
KWA1 141724Z 00002KT 05/01 A3039 RMK A01 T00460010  RH  078%=      5-min Rain = 0
KWA1 141725Z 05002KT 05/01 A3039 RMK A01 T00480011  RH  077%=      5-min Rain = 0
KWA1 141726Z 05004KT 05/01 A3039 RMK A01 T00490011  RH  076%=      5-min Rain = 0
KWA1 141727Z 04003KT 05/01 A3039 RMK A01 T00490011  RH  076%=      5-min Rain = 0
KWA1 141728Z 04002KT 05/01 A3039 RMK A01 T00490010  RH  076%=      5-min Rain = 0
KWA1 141729Z 06005KT 05/01 A3039 RMK A01 T00500011  RH  076%=      5-min Rain = 0
KWA1 141730Z 08002KT 05/01 A3039 RMK A01 T00480008  RH  075%=      5-min Rain = 0
KWA1 141731Z 05004KT 05/01 A3039 RMK A01 T00490011  RH  077%=      5-min Rain = 0
KWA1 141732Z 05005KT 05/01 A3039 RMK A01 T00500012  RH  076%=      5-min Rain = 0
KWA1 141733Z 05005KT 05/01 A3039 RMK A01 T00500012  RH  076%=      5-min Rain = 0
KWA1 141734Z 07002KT 05/01 A3039 RMK A01 T00490009  RH  075%=      5-min Rain = 0
KWA1 141735Z 04003KT 05/02 A3039 RMK A01 T00520015  RH  077%=      5-min Rain = 0
KWA1 141736Z 04003KT 05/01 A3039 RMK A01 T00530014  RH  076%=      5-min Rain = 0
KWA1 141737Z 04003KT 05/01 A3039 RMK A01 T00530013  RH  075%=      5-min Rain = 0
KWA1 141738Z 04004KT 05/02 A3039 RMK A01 T00530015  RH  077%=      5-min Rain = 0
KWA1 141739Z 06006KT 05/02 A3038 RMK A01 T00540018  RH  078%=      5-min Rain = 0
KWA1 141740Z 05005KT 06/02 A3038 RMK A01 T00570021  RH  078%=      5-min Rain = 0
KWA1 141741Z 03004KT 06/01 A3038 RMK A01 T00560014  RH  074%=      5-min Rain = 0
KWA1 141742Z 05005KT 06/02 A3038 RMK A01 T00560017  RH  076%=      5-min Rain = 0
KWA1 141743Z 05005KT 06/01 A3038 RMK A01 T00560013  RH  074%=      5-min Rain = 0
KWA1 141744Z 04004KT 05/01 A3038 RMK A01 T00540010  RH  073%=      5-min Rain = 0
KWA1 141745Z 04005KT 05/02 A3038 RMK A01 T00540015  RH  076%=      5-min Rain = 0
KWA1 141746Z 05004KT 06/02 A3038 RMK A01 T00570017  RH  076%=      5-min Rain = 0
KWA1 141747Z 05005KT 06/01 A3038 RMK A01 T00570013  RH  073%=      5-min Rain = 0
KWA1 141748Z 04006KT 06/01 A3037 RMK A01 T00560011  RH  073%=      5-min Rain = 0
KWA1 141749Z 03004KT 06/01 A3037 RMK A01 T00560014  RH  074%=      5-min Rain = 0
KWA1 141750Z 06005KT 06/02 A3037 RMK A01 T00570015  RH  074%=      5-min Rain = 0
KWA1 141751Z 06005KT 06/02 A3037 RMK A01 T00580016  RH  074%=      5-min Rain = 0
KWA1 141752Z 05004KT 06/01 A3037 RMK A01 T00590014  RH  073%=      5-min Rain = 0
KWA1 141753Z 05007KT 06/02 A3037 RMK A01 T00600020  RH  075%=      5-min Rain = 0
KWA1 141754Z 05006KT 06/02 A3037 RMK A01 T00610017  RH  073%=      5-min Rain = 0
KWA1 141755Z 05005KT 06/01 A3037 RMK A01 T00600014  RH  073%=      5-min Rain = 0
KWA1 141756Z 04007KT 06/02 A3037 RMK A01 T00590018  RH  075%=      5-min Rain = 0
KWA1 141757Z 03005KT 06/02 A3037 RMK A01 T00610018  RH  074%=      5-min Rain = 0
KWA1 141758Z 05006KT 06/02 A3036 RMK A01 T00620019  RH  074%=      5-min Rain = 0
KWA1 141759Z 07005KT 06/02 A3036 RMK A01 T00620015  RH  072%=      5-min Rain = 0
KWA1 141800Z 05004KT 06/02 A3036 RMK A01 T00640022  RH  075%=      5-min Rain = 0
KWA1 141801Z 05005KT 07/02 A3036 RMK A01 T00660019  RH  072%=      5-min Rain = 0
KWA1 141802Z 05005KT 07/02 A3036 RMK A01 T00670018  RH  071%=      5-min Rain = 0
KWA1 141803Z 05004KT 07/02 A3036 RMK A01 T00660017  RH  071%=      5-min Rain = 0
KWA1 141804Z 04003KT 07/02 A3036 RMK A01 T00680019  RH  071%=      5-min Rain = 0
KWA1 141805Z 05005KT 07/02 A3036 RMK A01 T00690017  RH  070%=      5-min Rain = 0
KWA1 141806Z 07005KT 07/02 A3036 RMK A01 T00700018  RH  070%=      5-min Rain = 0
KWA1 141807Z 06005KT 07/02 A3036 RMK A01 T00740021  RH  069%=      5-min Rain = 0
KWA1 141808Z 06004KT 07/01 A3036 RMK A01 T00740013  RH  065%=      5-min Rain = 0
KWA1 141809Z 05005KT 07/01 A3036 RMK A01 T00720013  RH  066%=      5-min Rain = 0
KWA1 141810Z 05006KT 07/02 A3036 RMK A01 T00740017  RH  067%=      5-min Rain = 0
KWA1 141811Z 05004KT 08/01 A3036 RMK A01 T00750011  RH  064%=      5-min Rain = 0
KWA1 141812Z 06004KT 07/01 A3035 RMK A01 T00740011  RH  064%=      5-min Rain = 0
KWA1 141813Z 05007KT 08/01 A3035 RMK A01 T00750012  RH  064%=      5-min Rain = 0
KWA1 141814Z 06006KT 08/01 A3035 RMK A01 T00750011  RH  064%=      5-min Rain = 0
KWA1 141815Z 06006KT 08/02 A3035 RMK A01 T00770019  RH  067%=      5-min Rain = 0
KWA1 141816Z 04004KT 08/01 A3035 RMK A01 T00780012  RH  063%=      5-min Rain = 0
KWA1 141817Z 03003KT 08/01 A3035 RMK A01 T00770011  RH  063%=      5-min Rain = 0
KWA1 141818Z 07003KT 08/01 A3035 RMK A01 T00770008  RH  062%=      5-min Rain = 0
KWA1 141819Z 06004G9KT 08/01 A3035 RMK A01 T00770009  RH  062%=      5-min Rain = 0
KWA1 141820Z 07007KT 08/01 A3035 RMK A01 T00790012  RH  063%=      5-min Rain = 0
KWA1 141821Z 07006KT 08/01 A3035 RMK A01 T00810012  RH  062%=      5-min Rain = 0
KWA1 141822Z 08007KT 08/01 A3035 RMK A01 T00810011  RH  061%=      5-min Rain = 0
KWA1 141823Z 09007KT 08/01 A3035 RMK A01 T00820014  RH  062%=      5-min Rain = 0
KWA1 141824Z 07006KT 08/02 A3035 RMK A01 T00830015  RH  062%=      5-min Rain = 0
KWA1 141825Z 07006KT 08/02 A3035 RMK A01 T00830017  RH  063%=      5-min Rain = 0
KWA1 141826Z 07008KT 08/01 A3035 RMK A01 T00840014  RH  061%=      5-min Rain = 0
KWA1 141827Z 06007KT 08/01 A3034 RMK A01 T00840014  RH  061%=      5-min Rain = 0
KWA1 141828Z 06005KT 08/01 A3034 RMK A01 T00830008  RH  059%=      5-min Rain = 0
KWA1 141829Z 05006KT 08/01 A3034 RMK A01 T00830011  RH  060%=      5-min Rain = 0
KWA1 141830Z 06007KT 08/01 A3034 RMK A01 T00840014  RH  061%=      5-min Rain = 0
KWA1 141831Z 06006KT 09/02 A3034 RMK A01 T00850015  RH  061%=      5-min Rain = 0
KWA1 141832Z 06004KT 09/01 A3034 RMK A01 T00850012  RH  060%=      5-min Rain = 0
KWA1 141833Z 06005KT 09/01 A3034 RMK A01 T00850014  RH  061%=      5-min Rain = 0
KWA1 141834Z 07005KT 09/02 A3034 RMK A01 T00850015  RH  061%=      5-min Rain = 0
KWA1 141835Z 08005KT 09/01 A3034 RMK A01 T00860006  RH  057%=      5-min Rain = 0
KWA1 141836Z 09004KT 09/01 A3033 RMK A01 T00870007  RH  058%=      5-min Rain = 0
KWA1 141837Z 08005KT 09/01 A3033 RMK A01 T00890011  RH  058%=      5-min Rain = 0
KWA1 141838Z 07007KT 09/02 A3033 RMK A01 T00910016  RH  060%=      5-min Rain = 0
KWA1 141839Z 06004KT 09/02 A3033 RMK A01 T00900015  RH  059%=      5-min Rain = 0
KWA1 141840Z 05004KT 09/01 A3033 RMK A01 T00890011  RH  058%=      5-min Rain = 0
KWA1 141841Z 06004KT 09/01 A3033 RMK A01 T00880014  RH  060%=      5-min Rain = 0
KWA1 141842Z 07003KT 09/02 A3033 RMK A01 T00890015  RH  060%=      5-min Rain = 0
KWA1 141843Z 07003KT 09/01 A3033 RMK A01 T00900006  RH  056%=      5-min Rain = 0
KWA1 141844Z 09006KT 09/01 A3033 RMK A01 T00900010  RH  057%=      5-min Rain = 0
KWA1 141845Z 09004KT 09/01 A3033 RMK A01 T00920010  RH  057%=      5-min Rain = 0
KWA1 141846Z 08005KT 09/01 A3032 RMK A01 T00940014  RH  058%=      5-min Rain = 0
KWA1 141847Z 07005KT 09/01 A3032 RMK A01 T00940013  RH  057%=      5-min Rain = 0
KWA1 141848Z 10002KT 09/01 A3032 RMK A01 T00930008  RH  055%=      5-min Rain = 0
KWA1 141849Z 06004KT 09/02 A3032 RMK A01 T00930015  RH  058%=      5-min Rain = 0
KWA1 141850Z 06006KT 10/02 A3032 RMK A01 T00970019  RH  058%=      5-min Rain = 0
KWA1 141851Z 09006KT 10/02 A3032 RMK A01 T00980019  RH  058%=      5-min Rain = 0
KWA1 141852Z 07005KT 10/01 A3032 RMK A01 T00980012  RH  055%=      5-min Rain = 0
KWA1 141853Z 07005KT 10/01 A3032 RMK A01 T00960009  RH  055%=      5-min Rain = 0
KWA1 141854Z 04005KT 10/01 A3032 RMK A01 T00960013  RH  056%=      5-min Rain = 0
KWA1 141855Z 06005KT 10/01 A3032 RMK A01 T00960010  RH  055%=      5-min Rain = 0
KWA1 141856Z 07004KT 10/01 A3032 RMK A01 T00960011  RH  056%=      5-min Rain = 0
KWA1 141857Z 06004KT 10/01 A3032 RMK A01 T00960010  RH  055%=      5-min Rain = 0
KWA1 141858Z 03003KT 10/02 A3032 RMK A01 T00970016  RH  057%=      5-min Rain = 0
KWA1 141859Z 04007KT 10/02 A3032 RMK A01 T01000017  RH  056%=      5-min Rain = 0
KWA1 141900Z 05007KT 10/02 A3032 RMK A01 T01010018  RH  056%=      5-min Rain = 0
KWA1 141901Z 05005KT 10/01 A3032 RMK A01 T01000014  RH  055%=      5-min Rain = 0
KWA1 141902Z 07005KT 10/01 A3032 RMK A01 T01000013  RH  054%=      5-min Rain = 0
KWA1 141903Z 04003KT 10/01 A3032 RMK A01 T00990010  RH  054%=      5-min Rain = 0
KWA1 141904Z 03004KT 10/01 A3031 RMK A01 T00980013  RH  055%=      5-min Rain = 0
KWA1 141905Z 04005KT 10/02 A3031 RMK A01 T01000018  RH  057%=      5-min Rain = 0
KWA1 141906Z 04005KT 10/01 A3031 RMK A01 T01010014  RH  055%=      5-min Rain = 0
KWA1 141907Z 06005KT 10/02 A3031 RMK A01 T01010016  RH  055%=      5-min Rain = 0
KWA1 141908Z 05007KT 10/01 A3031 RMK A01 T01010014  RH  054%=      5-min Rain = 0
KWA1 141909Z 05005KT 10/01 A3031 RMK A01 T01010013  RH  054%=      5-min Rain = 0
KWA1 141910Z 03003KT 10/01 A3031 RMK A01 T01010012  RH  054%=      5-min Rain = 0
KWA1 141911Z 03005KT 10/01 A3031 RMK A01 T01010014  RH  055%=      5-min Rain = 0
KWA1 141912Z 03004KT 10/01 A3031 RMK A01 T01030013  RH  054%=      5-min Rain = 0
KWA1 141913Z 01006KT 10/01 A3031 RMK A01 T01030014  RH  054%=      5-min Rain = 0
KWA1 141914Z 01006KT 11/02 A3031 RMK A01 T01050020  RH  056%=      5-min Rain = 0
KWA1 141915Z 05006KT 11/02 A3031 RMK A01 T01060017  RH  054%=      5-min Rain = 0
KWA1 141916Z 05007KT 11/01 A3031 RMK A01 T01050012  RH  052%=      5-min Rain = 0
KWA1 141917Z 05006KT 10/02 A3031 RMK A01 T01040015  RH  054%=      5-min Rain = 0
KWA1 141918Z 04007KT 11/02 A3031 RMK A01 T01050016  RH  054%=      5-min Rain = 0
KWA1 141919Z 04006KT 11/01 A3031 RMK A01 T01050011  RH  052%=      5-min Rain = 0
KWA1 141920Z 05004KT 11/01 A3031 RMK A01 T01050012  RH  052%=      5-min Rain = 0
KWA1 141921Z 08005KT 11/01 A3031 RMK A01 T01070014  RH  053%=      5-min Rain = 0
KWA1 141922Z 05005KT 11/02 A3031 RMK A01 T01080015  RH  053%=      5-min Rain = 0
KWA1 141923Z 04004KT 11/01 A303 RMK A01 T01100013  RH  051%=      5-min Rain = 0
KWA1 141924Z 04005KT 11/02 A303 RMK A01 T01100016  RH  052%=      5-min Rain = 0
KWA1 141925Z 03005KT 11/02 A303 RMK A01 T01120016  RH  052%=      5-min Rain = 0
KWA1 141926Z 04005KT 11/02 A303 RMK A01 T01130021  RH  053%=      5-min Rain = 0
KWA1 141927Z 06005KT 12/02 A303 RMK A01 T01160017  RH  051%=      5-min Rain = 0
KWA1 141928Z 08002KT 12/01 A303 RMK A01 T01160012  RH  049%=      5-min Rain = 0
KWA1 141929Z 01003KT 12/02 A303 RMK A01 T01160019  RH  051%=      5-min Rain = 0
KWA1 141930Z 36003KT 12/02 A303 RMK A01 T01190019  RH  050%=      5-min Rain = 0
KWA1 141931Z 35002KT 12/02 A303 RMK A01 T01170015  RH  049%=      5-min Rain = 0
KWA1 141932Z 04003KT 12/02 A303 RMK A01 T01170017  RH  050%=      5-min Rain = 0
KWA1 141933Z 01002KT 12/01 A303 RMK A01 T01180012  RH  048%=      5-min Rain = 0
KWA1 141934Z 33002KT 12/02 A303 RMK A01 T01190018  RH  050%=      5-min Rain = 0
KWA1 141935Z 34003KT 12/02 A303 RMK A01 T01210017  RH  049%=      5-min Rain = 0
KWA1 141936Z 31003KT 12/01 A3029 RMK A01 T01220013  RH  047%=      5-min Rain = 0
KWA1 141937Z 29003KT 12/01 A3029 RMK A01 T01220013  RH  047%=      5-min Rain = 0
KWA1 141938Z 28004KT 12/01 A3029 RMK A01 T01220013  RH  047%=      5-min Rain = 0
KWA1 141939Z 25004KT 12/01 A3029 RMK A01 T01230012  RH  047%=      5-min Rain = 0
KWA1 141940Z 26004KT 12/01 A3029 RMK A01 T01230005  RH  044%=      5-min Rain = 0
KWA1 141941Z 26004KT 12/01 A3029 RMK A01 T01240007  RH  045%=      5-min Rain = 0
KWA1 141942Z 18001KT 12/00 A3029 RMK A01 T01240003  RH  043%=      5-min Rain = 0
KWA1 141943Z 08002KT 12/01 A3029 RMK A01 T01240006  RH  044%=      5-min Rain = 0
KWA1 141944Z 10004KT 13/01 A3029 RMK A01 T01250007  RH  045%=      5-min Rain = 0
KWA1 141945Z 10006KT 13/01 A3029 RMK A01 T01270007  RH  044%=      5-min Rain = 0
KWA1 141946Z 12007KT 13/01 A3028 RMK A01 T01300009  RH  044%=      5-min Rain = 0
KWA1 141947Z 15009KT 13/01 A3028 RMK A01 T01340007  RH  042%=      5-min Rain = 0
KWA1 141948Z 23010KT 14/02 A3028 RMK A01 T01370018  RH  044%=      5-min Rain = 0
KWA1 141949Z 19006KT 13/01 A3029 RMK A01 T01340013  RH  044%=      5-min Rain = 0
KWA1 141950Z 14006KT 13/01 A3028 RMK A01 T01340008  RH  042%=      5-min Rain = 0
KWA1 141951Z 20006KT 14/01 A3028 RMK A01 T01370007  RH  041%=      5-min Rain = 0
KWA1 141952Z 17009KT 14/01 A3028 RMK A01 T01380007  RH  041%=      5-min Rain = 0
KWA1 141953Z 17007KT 14/00 A3028 RMK A01 T013900-0  RH  038%=      5-min Rain = 0
KWA1 141954Z 17007KT 14/00 A3028 RMK A01 T01390002  RH  039%=      5-min Rain = 0
KWA1 141955Z 19009KT 14/01 A3028 RMK A01 T01400008  RH  041%=      5-min Rain = 0
KWA1 141956Z 22008KT 14/01 A3028 RMK A01 T01420008  RH  040%=      5-min Rain = 0
KWA1 141957Z 17009KT 14/01 A3028 RMK A01 T01420008  RH  040%=      5-min Rain = 0
KWA1 141958Z 14007KT 14/01 A3028 RMK A01 T01430007  RH  039%=      5-min Rain = 0
KWA1 141959Z 15008KT 14/01 A3028 RMK A01 T01430007  RH  039%=      5-min Rain = 0
KWA1 142000Z 21010KT 14/01 A3027 RMK A01 T01430013  RH  041%=      5-min Rain = 0
KWA1 142001Z 21010KT 14/01 A3028 RMK A01 T01410013  RH  042%=      5-min Rain = 0
KWA1 142002Z 22008KT 14/01 A3028 RMK A01 T01380013  RH  043%=      5-min Rain = 0
KWA1 142003Z 20007KT 14/02 A3028 RMK A01 T01400017  RH  043%=      5-min Rain = 0
KWA1 142004Z 20006KT 14/00 A3028 RMK A01 T01430004  RH  039%=      5-min Rain = 0
KWA1 142005Z 18008KT 14/00 A3028 RMK A01 T01400000  RH  038%=      5-min Rain = 0
KWA1 142006Z 17008KT 14/01 A3028 RMK A01 T01410005  RH  040%=      5-min Rain = 0
KWA1 142007Z 16008KT 14/01 A3028 RMK A01 T01410005  RH  039%=      5-min Rain = 0
KWA1 142008Z 16008KT 14/01 A3027 RMK A01 T01410005  RH  039%=      5-min Rain = 0
KWA1 142009Z 18007KT 14/01 A3027 RMK A01 T01420014  RH  042%=      5-min Rain = 0
KWA1 142010Z 17005KT 14/00 A3027 RMK A01 T01410004  RH  039%=      5-min Rain = 0
KWA1 142011Z 23004KT 14/00 A3027 RMK A01 T01400004  RH  039%=      5-min Rain = 0
KWA1 142012Z 16006G11KT 14/00 A3027 RMK A01 T01400003  RH  039%=      5-min Rain = 0
KWA1 142013Z 17009KT 14/01 A3027 RMK A01 T01420008  RH  040%=      5-min Rain = 0
KWA1 142014Z 17010KT 14/01 A3027 RMK A01 T01430006  RH  039%=      5-min Rain = 0
KWA1 142015Z 17010KT 14/01 A3027 RMK A01 T01440013  RH  041%=      5-min Rain = 0
KWA1 142016Z 16009KT 15/01 A3027 RMK A01 T01460009  RH  039%=      5-min Rain = 0
KWA1 142017Z 15010KT 15/01 A3027 RMK A01 T01460012  RH  040%=      5-min Rain = 0
KWA1 142018Z 16013KT 15/01 A3027 RMK A01 T01470013  RH  040%=      5-min Rain = 0
KWA1 142019Z 16011KT 15/01 A3027 RMK A01 T01470010  RH  039%=      5-min Rain = 0
KWA1 142020Z 16011KT 15/01 A3027 RMK A01 T01460008  RH  039%=      5-min Rain = 0
KWA1 142021Z 16008KT 14/01 A3027 RMK A01 T01430006  RH  039%=      5-min Rain = 0
KWA1 142022Z 17010KT 14/01 A3027 RMK A01 T01440011  RH  040%=      5-min Rain = 0
KWA1 142023Z 16011KT 14/01 A3027 RMK A01 T01440011  RH  040%=      5-min Rain = 0
KWA1 142024Z 16009KT 14/01 A3027 RMK A01 T01440009  RH  040%=      5-min Rain = 0
KWA1 142025Z 16009KT 15/01 A3027 RMK A01 T01450011  RH  040%=      5-min Rain = 0
KWA1 142026Z 18007KT 15/01 A3027 RMK A01 T01450009  RH  039%=      5-min Rain = 0
KWA1 142027Z 16009KT 15/01 A3026 RMK A01 T01450010  RH  040%=      5-min Rain = 0
KWA1 142028Z 17009KT 15/02 A3026 RMK A01 T01460016  RH  041%=      5-min Rain = 0
KWA1 142029Z 16008KT 15/02 A3026 RMK A01 T01490015  RH  040%=      5-min Rain = 0
KWA1 142030Z 16010KT 15/02 A3026 RMK A01 T01480015  RH  040%=      5-min Rain = 0
KWA1 142031Z 18012KT 15/02 A3026 RMK A01 T01480016  RH  041%=      5-min Rain = 0
KWA1 142032Z 18013KT 15/02 A3026 RMK A01 T01480015  RH  040%=      5-min Rain = 0
KWA1 142033Z 19008KT 15/01 A3026 RMK A01 T01470011  RH  040%=      5-min Rain = 0
KWA1 142034Z 18007KT 15/01 A3026 RMK A01 T01460013  RH  040%=      5-min Rain = 0
KWA1 142035Z 18007KT 15/01 A3026 RMK A01 T01460011  RH  040%=      5-min Rain = 0
KWA1 142036Z 19008KT 15/01 A3026 RMK A01 T01460013  RH  040%=      5-min Rain = 0
KWA1 142037Z 17010KT 15/02 A3026 RMK A01 T01480020  RH  042%=      5-min Rain = 0
KWA1 142038Z 17011KT 15/02 A3026 RMK A01 T01510018  RH  040%=      5-min Rain = 0
KWA1 142039Z 16009KT 15/01 A3026 RMK A01 T01490013  RH  040%=      5-min Rain = 0
KWA1 142040Z 17011KT 15/01 A3026 RMK A01 T01480013  RH  040%=      5-min Rain = 0
KWA1 142041Z 17010KT 15/01 A3026 RMK A01 T01480014  RH  040%=      5-min Rain = 0
KWA1 142042Z 17011KT 15/02 A3026 RMK A01 T01480016  RH  041%=      5-min Rain = 0
KWA1 142043Z 18009KT 15/02 A3026 RMK A01 T01490017  RH  041%=      5-min Rain = 0
KWA1 142044Z 18010KT 15/01 A3025 RMK A01 T01490014  RH  040%=      5-min Rain = 0
KWA1 142045Z 19011KT 15/02 A3025 RMK A01 T01510022  RH  042%=      5-min Rain = 0
KWA1 142046Z 20009KT 15/01 A3025 RMK A01 T01500010  RH  039%=      5-min Rain = 0
KWA1 142047Z 18012KT 15/02 A3025 RMK A01 T01470016  RH  041%=      5-min Rain = 0
KWA1 142048Z 17011KT 15/02 A3025 RMK A01 T01500019  RH  041%=      5-min Rain = 0
KWA1 142049Z 15009KT 15/01 A3025 RMK A01 T01500012  RH  039%=      5-min Rain = 0
KWA1 142050Z 14008KT 15/01 A3025 RMK A01 T01480012  RH  039%=      5-min Rain = 0
KWA1 142051Z 16010KT 15/01 A3025 RMK A01 T01470012  RH  040%=      5-min Rain = 0
KWA1 142052Z 18012KT 15/01 A3025 RMK A01 T01460014  RH  041%=      5-min Rain = 0
KWA1 142053Z 18011KT 15/02 A3025 RMK A01 T01470016  RH  041%=      5-min Rain = 0
KWA1 142054Z 18011KT 15/02 A3025 RMK A01 T01500017  RH  041%=      5-min Rain = 0
KWA1 142055Z 19011KT 15/02 A3025 RMK A01 T01500017  RH  041%=      5-min Rain = 0
KWA1 142056Z 18010KT 15/02 A3025 RMK A01 T01510015  RH  040%=      5-min Rain = 0
KWA1 142057Z 19009KT 15/02 A3025 RMK A01 T01510016  RH  040%=      5-min Rain = 0
KWA1 142058Z 19008KT 15/01 A3025 RMK A01 T01500011  RH  039%=      5-min Rain = 0
KWA1 142059Z 19008KT 15/01 A3025 RMK A01 T01470010  RH  039%=      5-min Rain = 0
KWA1 142100Z 16009KT 15/01 A3025 RMK A01 T01460013  RH  040%=      5-min Rain = 0
KWA1 142101Z 16008KT 15/01 A3025 RMK A01 T01470013  RH  040%=      5-min Rain = 0
KWA1 142102Z 16007KT 15/01 A3025 RMK A01 T01470011  RH  040%=      5-min Rain = 0
KWA1 142103Z 15008KT 15/01 A3025 RMK A01 T01460013  RH  040%=      5-min Rain = 0
KWA1 142104Z 13010KT 15/02 A3025 RMK A01 T01480015  RH  040%=      5-min Rain = 0
KWA1 142105Z 13006KT 15/01 A3025 RMK A01 T01470012  RH  040%=      5-min Rain = 0
KWA1 142106Z 16006KT 15/02 A3025 RMK A01 T01460015  RH  041%=      5-min Rain = 0
KWA1 142107Z 16008KT 15/02 A3025 RMK A01 T01500021  RH  042%=      5-min Rain = 0
KWA1 142108Z 17010KT 15/02 A3025 RMK A01 T01520016  RH  040%=      5-min Rain = 0
KWA1 142109Z 18011KT 15/02 A3025 RMK A01 T01510017  RH  040%=      5-min Rain = 0
KWA1 142110Z 19008KT 15/01 A3025 RMK A01 T01510014  RH  040%=      5-min Rain = 0
KWA1 142111Z 16009KT 15/01 A3025 RMK A01 T01500014  RH  040%=      5-min Rain = 0
KWA1 142112Z 18010G15KT 15/01 A3024 RMK A01 T01490014  RH  040%=      5-min Rain = 0
KWA1 142113Z 19011KT 15/02 A3024 RMK A01 T01500017  RH  040%=      5-min Rain = 0
KWA1 142114Z 19009KT 15/01 A3024 RMK A01 T01500014  RH  040%=      5-min Rain = 0
KWA1 142115Z 20009KT 15/02 A3024 RMK A01 T01510017  RH  040%=      5-min Rain = 0
KWA1 142116Z 19007KT 15/02 A3024 RMK A01 T01520015  RH  040%=      5-min Rain = 0
KWA1 142117Z 17012KT 16/02 A3024 RMK A01 T01550021  RH  040%=      5-min Rain = 0
KWA1 142118Z 17014KT 16/02 A3024 RMK A01 T01560018  RH  039%=      5-min Rain = 0
KWA1 142119Z 17013KT 16/02 A3024 RMK A01 T01550017  RH  039%=      5-min Rain = 0
KWA1 142120Z 16013KT 15/02 A3024 RMK A01 T01530017  RH  040%=      5-min Rain = 0
KWA1 142121Z 17012KT 15/02 A3024 RMK A01 T01530015  RH  039%=      5-min Rain = 0
KWA1 142122Z 16010KT 15/01 A3024 RMK A01 T01520014  RH  039%=      5-min Rain = 0
KWA1 142123Z 18012KT 15/02 A3024 RMK A01 T01510016  RH  040%=      5-min Rain = 0
KWA1 142124Z 19010KT 15/01 A3024 RMK A01 T01510013  RH  039%=      5-min Rain = 0
KWA1 142125Z 19008KT 15/02 A3024 RMK A01 T01510018  RH  041%=      5-min Rain = 0
KWA1 142126Z 18011KT 15/02 A3024 RMK A01 T01540018  RH  040%=      5-min Rain = 0
KWA1 142127Z 20007KT 15/02 A3024 RMK A01 T01540016  RH  039%=      5-min Rain = 0
KWA1 142128Z 18008KT 15/02 A3024 RMK A01 T01530017  RH  040%=      5-min Rain = 0
KWA1 142129Z 18010KT 15/02 A3024 RMK A01 T01540018  RH  040%=      5-min Rain = 0
KWA1 142130Z 16008KT 15/01 A3024 RMK A01 T01540014  RH  039%=      5-min Rain = 0
KWA1 142131Z 17011KT 15/02 A3024 RMK A01 T01530015  RH  039%=      5-min Rain = 0
KWA1 142132Z 17011KT 15/02 A3024 RMK A01 T01540017  RH  039%=      5-min Rain = 0
KWA1 142133Z 17011KT 16/02 A3024 RMK A01 T01550019  RH  040%=      5-min Rain = 0
KWA1 142134Z 17010KT 15/01 A3024 RMK A01 T01540012  RH  038%=      5-min Rain = 0
KWA1 142135Z 17013KT 15/02 A3024 RMK A01 T01520015  RH  040%=      5-min Rain = 0
KWA1 142136Z 16012KT 15/02 A3024 RMK A01 T01530016  RH  040%=      5-min Rain = 0
KWA1 142137Z 16011KT 15/02 A3024 RMK A01 T01530017  RH  040%=      5-min Rain = 0
KWA1 142138Z 16013KT 15/02 A3024 RMK A01 T01530015  RH  039%=      5-min Rain = 0
KWA1 142139Z 15012KT 15/02 A3024 RMK A01 T01530016  RH  039%=      5-min Rain = 0
KWA1 142140Z 15010KT 15/02 A3024 RMK A01 T01520016  RH  040%=      5-min Rain = 0
KWA1 142141Z 14011KT 15/01 A3024 RMK A01 T01520014  RH  039%=      5-min Rain = 0
KWA1 142142Z 16011KT 15/01 A3024 RMK A01 T01510014  RH  039%=      5-min Rain = 0
KWA1 142143Z 17010KT 15/02 A3024 RMK A01 T01510015  RH  040%=      5-min Rain = 0
KWA1 142144Z 18011KT 15/02 A3024 RMK A01 T01520017  RH  040%=      5-min Rain = 0
KWA1 142145Z 18011KT 15/02 A3024 RMK A01 T01530019  RH  040%=      5-min Rain = 0
KWA1 142146Z 17011KT 16/02 A3024 RMK A01 T01560021  RH  040%=      5-min Rain = 0
KWA1 142147Z 17010KT 16/02 A3024 RMK A01 T01570023  RH  040%=      5-min Rain = 0
KWA1 142148Z 17011KT 16/03 A3024 RMK A01 T01600025  RH  040%=      5-min Rain = 0
KWA1 142149Z 18011KT 16/02 A3024 RMK A01 T01600022  RH  039%=      5-min Rain = 0
KWA1 142150Z 19014KT 16/02 A3023 RMK A01 T01580019  RH  039%=      5-min Rain = 0
KWA1 142151Z 18013KT 16/02 A3023 RMK A01 T01570018  RH  039%=      5-min Rain = 0
KWA1 142152Z 18010KT 16/01 A3023 RMK A01 T01550014  RH  038%=      5-min Rain = 0
KWA1 142153Z 16009KT 15/01 A3023 RMK A01 T01520013  RH  039%=      5-min Rain = 0
KWA1 142154Z 17012KT 15/02 A3023 RMK A01 T01530017  RH  040%=      5-min Rain = 0
KWA1 142155Z 15012KT 16/02 A3023 RMK A01 T01550015  RH  039%=      5-min Rain = 0
KWA1 142156Z 16012KT 15/01 A3023 RMK A01 T01540014  RH  039%=      5-min Rain = 0
KWA1 142157Z 15011KT 15/01 A3023 RMK A01 T01530014  RH  039%=      5-min Rain = 0
KWA1 142158Z 16010KT 15/02 A3024 RMK A01 T01530015  RH  039%=      5-min Rain = 0
KWA1 142159Z 16011KT 15/01 A3023 RMK A01 T01520014  RH  039%=      5-min Rain = 0
KWA1 142200Z 16014KT 15/02 A3023 RMK A01 T01530017  RH  040%=      5-min Rain = 0
KWA1 142201Z 16013KT 15/02 A3023 RMK A01 T01530015  RH  039%=      5-min Rain = 0
KWA1 142202Z 16012KT 15/02 A3023 RMK A01 T01530015  RH  039%=      5-min Rain = 0
KWA1 142203Z 18009KT 15/02 A3023 RMK A01 T01530018  RH  040%=      5-min Rain = 0
KWA1 142204Z 19007KT 15/01 A3023 RMK A01 T01540013  RH  038%=      5-min Rain = 0
KWA1 142205Z 19009KT 15/01 A3023 RMK A01 T01520010  RH  038%=      5-min Rain = 0
KWA1 142206Z 16010KT 15/02 A3023 RMK A01 T01520015  RH  039%=      5-min Rain = 0
KWA1 142207Z 15009KT 15/02 A3023 RMK A01 T01540016  RH  039%=      5-min Rain = 0
KWA1 142208Z 18011KT 16/02 A3023 RMK A01 T01550018  RH  040%=      5-min Rain = 0
KWA1 142209Z 17010KT 16/02 A3023 RMK A01 T01570018  RH  039%=      5-min Rain = 0
KWA1 142210Z 18010KT 16/02 A3023 RMK A01 T01570017  RH  039%=      5-min Rain = 0
KWA1 142211Z 17012KT 16/02 A3023 RMK A01 T01550015  RH  039%=      5-min Rain = 0
KWA1 142212Z 16008KT 15/01 A3023 RMK A01 T01540013  RH  038%=      5-min Rain = 0
KWA1 142213Z 16009KT 15/01 A3023 RMK A01 T01520013  RH  039%=      5-min Rain = 0
KWA1 142214Z 16008KT 15/02 A3023 RMK A01 T01520016  RH  040%=      5-min Rain = 0
KWA1 142215Z 16009KT 15/02 A3023 RMK A01 T01530017  RH  040%=      5-min Rain = 0
KWA1 142216Z 17010KT 16/02 A3023 RMK A01 T01550016  RH  039%=      5-min Rain = 0
KWA1 142217Z 16012KT 16/02 A3023 RMK A01 T01560022  RH  040%=      5-min Rain = 0
KWA1 142218Z 14013KT 16/02 A3023 RMK A01 T01570018  RH  039%=      5-min Rain = 0
KWA1 142219Z 15012KT 16/02 A3023 RMK A01 T01560016  RH  039%=      5-min Rain = 0
KWA1 142220Z 14012KT 15/02 A3023 RMK A01 T01540016  RH  039%=      5-min Rain = 0
KWA1 142221Z 17012KT 15/02 A3023 RMK A01 T01540019  RH  040%=      5-min Rain = 0
KWA1 142222Z 18010KT 16/02 A3023 RMK A01 T01550016  RH  039%=      5-min Rain = 0
KWA1 142223Z 19008KT 15/02 A3023 RMK A01 T01540017  RH  039%=      5-min Rain = 0
KWA1 142224Z 20008KT 15/02 A3023 RMK A01 T01540016  RH  039%=      5-min Rain = 0
KWA1 142225Z 18008KT 15/02 A3023 RMK A01 T01540017  RH  040%=      5-min Rain = 0
KWA1 142226Z 17010KT 15/02 A3023 RMK A01 T01540018  RH  040%=      5-min Rain = 0
KWA1 142227Z 16009KT 16/02 A3023 RMK A01 T01550020  RH  040%=      5-min Rain = 0
KWA1 142228Z 15009G14KT 16/02 A3023 RMK A01 T01560018  RH  039%=      5-min Rain = 0
KWA1 142229Z 15015KT 16/02 A3023 RMK A01 T01560019  RH  040%=      5-min Rain = 0
KWA1 142230Z 15014KT 16/02 A3023 RMK A01 T01560017  RH  039%=      5-min Rain = 0
KWA1 142231Z 15014KT 16/02 A3023 RMK A01 T01550017  RH  039%=      5-min Rain = 0
KWA1 142232Z 14012KT 15/02 A3023 RMK A01 T01540015  RH  039%=      5-min Rain = 0
KWA1 142233Z 15010KT 15/02 A3023 RMK A01 T01530016  RH  039%=      5-min Rain = 0
KWA1 142234Z 15010KT 15/02 A3023 RMK A01 T01530016  RH  040%=      5-min Rain = 0
KWA1 142235Z 15009KT 15/02 A3023 RMK A01 T01530016  RH  039%=      5-min Rain = 0
KWA1 142236Z 16008KT 15/02 A3022 RMK A01 T01520016  RH  040%=      5-min Rain = 0
KWA1 142237Z 15007KT 15/02 A3022 RMK A01 T01530015  RH  039%=      5-min Rain = 0
KWA1 142238Z 15008KT 15/02 A3022 RMK A01 T01530015  RH  039%=      5-min Rain = 0
KWA1 142239Z 16009KT 15/02 A3022 RMK A01 T01530020  RH  040%=      5-min Rain = 0
KWA1 142240Z 17013KT 15/02 A3022 RMK A01 T01540018  RH  040%=      5-min Rain = 0
KWA1 142241Z 16011KT 15/02 A3022 RMK A01 T01540018  RH  040%=      5-min Rain = 0
KWA1 142242Z 17011KT 15/02 A3022 RMK A01 T01540018  RH  040%=      5-min Rain = 0
KWA1 142243Z 16010KT 15/02 A3022 RMK A01 T01540019  RH  040%=      5-min Rain = 0
KWA1 142244Z 17011KT 15/02 A3022 RMK A01 T01540019  RH  040%=      5-min Rain = 0
KWA1 142245Z 16008KT 16/02 A3022 RMK A01 T01550020  RH  040%=      5-min Rain = 0
KWA1 142246Z 16012KT 16/02 A3022 RMK A01 T01550019  RH  040%=      5-min Rain = 0
KWA1 142247Z 16011KT 16/02 A3022 RMK A01 T01550019  RH  040%=      5-min Rain = 0
KWA1 142248Z 15012KT 16/02 A3022 RMK A01 T01550022  RH  041%=      5-min Rain = 0
KWA1 142249Z 15014KT 16/02 A3022 RMK A01 T01560019  RH  040%=      5-min Rain = 0
KWA1 142250Z 15014KT 16/02 A3022 RMK A01 T01550018  RH  040%=      5-min Rain = 0
KWA1 142251Z 16011KT 15/02 A3022 RMK A01 T01540018  RH  040%=      5-min Rain = 0
KWA1 142252Z 15014KT 15/02 A3022 RMK A01 T01540018  RH  040%=      5-min Rain = 0
KWA1 142253Z 16012KT 15/02 A3022 RMK A01 T01540018  RH  040%=      5-min Rain = 0
KWA1 142254Z 15011KT 15/02 A3022 RMK A01 T01530019  RH  040%=      5-min Rain = 0
KWA1 142255Z 14012KT 15/02 A3022 RMK A01 T01540019  RH  040%=      5-min Rain = 0
KWA1 142256Z 15011KT 15/02 A3022 RMK A01 T01530017  RH  040%=      5-min Rain = 0
KWA1 142257Z 15014KT 15/02 A3022 RMK A01 T01530018  RH  040%=      5-min Rain = 0
KWA1 142258Z 16011KT 15/02 A3022 RMK A01 T01520015  RH  040%=      5-min Rain = 0
KWA1 142259Z 16011KT 15/02 A3022 RMK A01 T01510015  RH  040%=      5-min Rain = 0
KWA1 142300Z 16009KT 15/02 A3022 RMK A01 T01510018  RH  041%=      5-min Rain = 0
KWA1 142301Z 16013KT 15/02 A3022 RMK A01 T01530020  RH  041%=      5-min Rain = 0
KWA1 142302Z 17013KT 15/02 A3022 RMK A01 T01530017  RH  040%=      5-min Rain = 0
KWA1 142303Z 17013KT 15/02 A3022 RMK A01 T01530018  RH  040%=      5-min Rain = 0
KWA1 142304Z 16009KT 15/02 A3022 RMK A01 T01530019  RH  040%=      5-min Rain = 0
KWA1 142305Z 16012KT 15/02 A3022 RMK A01 T01530021  RH  041%=      5-min Rain = 0
KWA1 142306Z 15013KT 15/02 A3022 RMK A01 T01530019  RH  040%=      5-min Rain = 0
KWA1 142307Z 15014KT 15/02 A3022 RMK A01 T01530016  RH  040%=      5-min Rain = 0
KWA1 142308Z 15013KT 15/02 A3022 RMK A01 T01520016  RH  040%=      5-min Rain = 0
KWA1 142309Z 16011KT 15/02 A3022 RMK A01 T01520016  RH  040%=      5-min Rain = 0
KWA1 142310Z 16011KT 15/02 A3022 RMK A01 T01520016  RH  040%=      5-min Rain = 0
KWA1 142311Z 17009KT 15/02 A3022 RMK A01 T01520016  RH  040%=      5-min Rain = 0
KWA1 142312Z 17009KT 15/02 A3022 RMK A01 T01520017  RH  040%=      5-min Rain = 0
KWA1 142313Z 17010KT 15/02 A3022 RMK A01 T01520017  RH  040%=      5-min Rain = 0
KWA1 142314Z 16009KT 15/02 A3022 RMK A01 T01520017  RH  040%=      5-min Rain = 0
KWA1 142315Z 16008KT 15/02 A3022 RMK A01 T01520018  RH  040%=      5-min Rain = 0
KWA1 142316Z 17008KT 15/02 A3022 RMK A01 T01520017  RH  040%=      5-min Rain = 0
KWA1 142317Z 17011KT 15/02 A3022 RMK A01 T01520018  RH  040%=      5-min Rain = 0
KWA1 142318Z 17012KT 15/02 A3022 RMK A01 T01520020  RH  041%=      5-min Rain = 0
KWA1 142319Z 16012KT 15/02 A3022 RMK A01 T01520020  RH  041%=      5-min Rain = 0
KWA1 142320Z 16012KT 15/02 A3022 RMK A01 T01510015  RH  040%=      5-min Rain = 0
KWA1 142321Z 15011KT 15/02 A3022 RMK A01 T01510016  RH  040%=      5-min Rain = 0
KWA1 142322Z 16011KT 15/01 A3022 RMK A01 T01500013  RH  039%=      5-min Rain = 0
KWA1 142323Z 16009KT 15/02 A3022 RMK A01 T01500015  RH  040%=      5-min Rain = 0
KWA1 142324Z 16011KT 15/02 A3022 RMK A01 T01490016  RH  040%=      5-min Rain = 0
KWA1 142325Z 16009KT 15/02 A3022 RMK A01 T01490016  RH  040%=      5-min Rain = 0
KWA1 142326Z 16009KT 15/02 A3022 RMK A01 T01500016  RH  040%=      5-min Rain = 0
KWA1 142327Z 16010KT 15/02 A3022 RMK A01 T01500016  RH  040%=      5-min Rain = 0
KWA1 142328Z 16011KT 15/02 A3022 RMK A01 T01500015  RH  040%=      5-min Rain = 0
KWA1 142329Z 15012KT 15/02 A3022 RMK A01 T01500016  RH  040%=      5-min Rain = 0
KWA1 142330Z 16012KT 15/02 A3022 RMK A01 T01500017  RH  040%=      5-min Rain = 0
KWA1 142331Z 16012KT 15/02 A3022 RMK A01 T01500016  RH  040%=      5-min Rain = 0
KWA1 142332Z 16011KT 15/02 A3021 RMK A01 T01500016  RH  040%=      5-min Rain = 0
KWA1 142333Z 15011KT 15/02 A3021 RMK A01 T01500018  RH  041%=      5-min Rain = 0
KWA1 142334Z 16012KT 15/02 A3021 RMK A01 T01500018  RH  041%=      5-min Rain = 0
KWA1 142335Z 16010KT 15/02 A3021 RMK A01 T01500018  RH  041%=      5-min Rain = 0
KWA1 142336Z 16010KT 15/02 A3021 RMK A01 T01500020  RH  042%=      5-min Rain = 0
KWA1 142337Z 17011KT 15/02 A3021 RMK A01 T01500018  RH  041%=      5-min Rain = 0
KWA1 142338Z 16013KT 15/02 A3021 RMK A01 T01500017  RH  041%=      5-min Rain = 0
KWA1 142339Z 14012KT 15/02 A3021 RMK A01 T01490017  RH  041%=      5-min Rain = 0
KWA1 142340Z 15010KT 15/02 A3021 RMK A01 T01480016  RH  041%=      5-min Rain = 0
KWA1 142341Z 15011KT 15/02 A3021 RMK A01 T01480016  RH  041%=      5-min Rain = 0
KWA1 142342Z 14011KT 15/02 A3021 RMK A01 T01480015  RH  040%=      5-min Rain = 0
KWA1 142343Z 15011KT 15/01 A3021 RMK A01 T01470014  RH  040%=      5-min Rain = 0
KWA1 142344Z 15009KT 15/01 A3021 RMK A01 T01470014  RH  040%=      5-min Rain = 0
KWA1 142345Z 15010KT 15/01 A3021 RMK A01 T01470014  RH  040%=      5-min Rain = 0
KWA1 142346Z 15008KT 15/01 A3021 RMK A01 T01470014  RH  041%=      5-min Rain = 0
KWA1 142347Z 15010KT 15/02 A3021 RMK A01 T01470016  RH  041%=      5-min Rain = 0
KWA1 142348Z 15011KT 15/02 A3021 RMK A01 T01470015  RH  041%=      5-min Rain = 0
KWA1 142349Z 15010KT 15/02 A3021 RMK A01 T01460016  RH  041%=      5-min Rain = 0
KWA1 142350Z 16009KT 15/02 A3021 RMK A01 T01460018  RH  042%=      5-min Rain = 0
KWA1 142351Z 16008KT 15/02 A3021 RMK A01 T01460020  RH  043%=      5-min Rain = 0
KWA1 142352Z 16008KT 15/02 A3021 RMK A01 T01450021  RH  043%=      5-min Rain = 0
KWA1 142353Z 16007KT 14/02 A3021 RMK A01 T01440020  RH  043%=      5-min Rain = 0
KWA1 142354Z 16007KT 14/02 A3021 RMK A01 T01440022  RH  044%=      5-min Rain = 0
KWA1 142355Z 15008KT 14/02 A3021 RMK A01 T01440022  RH  044%=      5-min Rain = 0
KWA1 142356Z 16009KT 14/02 A3021 RMK A01 T01430019  RH  043%=      5-min Rain = 0
KWA1 142357Z 15010KT 14/02 A3021 RMK A01 T01430018  RH  043%=      5-min Rain = 0
KWA1 142358Z 15010KT 14/02 A3021 RMK A01 T01430017  RH  042%=      5-min Rain = 0
KWA1 142359Z 15009KT 14/02 A3021 RMK A01 T01420017  RH  043%=      5-min Rain = 0
KWA1 150000Z 15008KT 14/02 A3021 RMK A01 T01420018  RH  043%=      5-min Rain = 0
KWA1 150001Z 15009KT 14/02 A3021 RMK A01 T01410020  RH  044%=      5-min Rain = 0
KWA1 150002Z 15009KT 14/02 A3021 RMK A01 T01400018  RH  043%=      5-min Rain = 0
KWA1 150003Z 15010KT 14/02 A3021 RMK A01 T01400019  RH  044%=      5-min Rain = 0
KWA1 150004Z 16010KT 14/02 A3021 RMK A01 T01400019  RH  044%=      5-min Rain = 0
KWA1 150005Z 16009KT 14/02 A3021 RMK A01 T01390019  RH  044%=      5-min Rain = 0
KWA1 150006Z 16008KT 14/02 A3021 RMK A01 T01390021  RH  045%=      5-min Rain = 0
KWA1 150007Z 16008KT 14/02 A3021 RMK A01 T01370021  RH  045%=      5-min Rain = 0
KWA1 150008Z 16008KT 14/02 A3022 RMK A01 T01360021  RH  046%=      5-min Rain = 0
KWA1 150009Z 15007KT 14/02 A3022 RMK A01 T01350022  RH  046%=      5-min Rain = 0
KWA1 150010Z 16008KT 13/02 A3022 RMK A01 T01340021  RH  046%=      5-min Rain = 0
KWA1 150011Z 15008KT 13/02 A3022 RMK A01 T01340021  RH  046%=      5-min Rain = 0
KWA1 150012Z 16008KT 13/02 A3022 RMK A01 T01330020  RH  046%=      5-min Rain = 0
KWA1 150013Z 15008KT 13/02 A3022 RMK A01 T01320019  RH  046%=      5-min Rain = 0
KWA1 150014Z 16009KT 13/02 A3022 RMK A01 T01320019  RH  046%=      5-min Rain = 0
KWA1 150015Z 15009KT 13/02 A3022 RMK A01 T01310017  RH  046%=      5-min Rain = 0
KWA1 150016Z 15009KT 13/02 A3022 RMK A01 T01310017  RH  046%=      5-min Rain = 0
KWA1 150017Z 15008KT 13/02 A3022 RMK A01 T01300017  RH  046%=      5-min Rain = 0
KWA1 150018Z 15009KT 13/02 A3022 RMK A01 T01290017  RH  046%=      5-min Rain = 0
KWA1 150019Z 15009KT 13/02 A3022 RMK A01 T01290016  RH  046%=      5-min Rain = 0
KWA1 150020Z 15009KT 13/02 A3022 RMK A01 T01290016  RH  046%=      5-min Rain = 0
KWA1 150021Z 15009KT 13/02 A3022 RMK A01 T01280016  RH  046%=      5-min Rain = 0
KWA1 150022Z 15008KT 13/02 A3022 RMK A01 T01280016  RH  046%=      5-min Rain = 0
KWA1 150023Z 15008KT 13/02 A3022 RMK A01 T01270016  RH  047%=      5-min Rain = 0
KWA1 150024Z 15008KT 13/02 A3022 RMK A01 T01260017  RH  047%=      5-min Rain = 0
KWA1 150025Z 15008KT 13/02 A3022 RMK A01 T01250016  RH  047%=      5-min Rain = 0
KWA1 150026Z 14008KT 13/02 A3022 RMK A01 T01250016  RH  047%=      5-min Rain = 0
KWA1 150027Z 14008KT 13/02 A3022 RMK A01 T01250016  RH  047%=      5-min Rain = 0
KWA1 150028Z 14008KT 12/02 A3022 RMK A01 T01240016  RH  048%=      5-min Rain = 0
KWA1 150029Z 14008KT 12/02 A3022 RMK A01 T01230016  RH  048%=      5-min Rain = 0
KWA1 150030Z 14008KT 12/02 A3022 RMK A01 T01220016  RH  048%=      5-min Rain = 0
KWA1 150031Z 14007KT 12/02 A3022 RMK A01 T01210015  RH  048%=      5-min Rain = 0
KWA1 150032Z 14007KT 12/02 A3022 RMK A01 T01210016  RH  048%=      5-min Rain = 0
KWA1 150033Z 14007KT 12/02 A3022 RMK A01 T01200015  RH  049%=      5-min Rain = 0
KWA1 150034Z 14007KT 12/02 A3022 RMK A01 T01190016  RH  049%=      5-min Rain = 0
KWA1 150035Z 14007KT 12/02 A3022 RMK A01 T01180016  RH  050%=      5-min Rain = 0
KWA1 150036Z 14007KT 12/02 A3022 RMK A01 T01170016  RH  050%=      5-min Rain = 0
KWA1 150037Z 14007KT 12/02 A3021 RMK A01 T01160015  RH  050%=      5-min Rain = 0
KWA1 150038Z 14007KT 12/02 A3021 RMK A01 T01160015  RH  050%=      5-min Rain = 0
KWA1 150039Z 14007KT 12/02 A3021 RMK A01 T01150015  RH  050%=      5-min Rain = 0
KWA1 150040Z 14007KT 12/01 A3021 RMK A01 T01160014  RH  050%=      5-min Rain = 0
KWA1 150041Z 14007KT 12/01 A3021 RMK A01 T01160014  RH  050%=      5-min Rain = 0
KWA1 150042Z 14007KT 12/01 A3021 RMK A01 T01160013  RH  049%=      5-min Rain = 0
KWA1 150043Z 14007KT 12/01 A3021 RMK A01 T01160013  RH  049%=      5-min Rain = 0
KWA1 150044Z 14007KT 12/01 A3021 RMK A01 T01160013  RH  049%=      5-min Rain = 0
KWA1 150045Z 14007KT 12/01 A3021 RMK A01 T01150013  RH  049%=      5-min Rain = 0
KWA1 150046Z 14007KT 11/01 A3021 RMK A01 T01140014  RH  050%=      5-min Rain = 0
KWA1 150047Z 14008KT 11/01 A3021 RMK A01 T01120014  RH  051%=      5-min Rain = 0
KWA1 150048Z 14008KT 11/01 A3022 RMK A01 T01110014  RH  051%=      5-min Rain = 0
KWA1 150049Z 14008KT 11/01 A3022 RMK A01 T01110014  RH  051%=      5-min Rain = 0
KWA1 150050Z 14008KT 11/01 A3022 RMK A01 T01100013  RH  051%=      5-min Rain = 0
KWA1 150051Z 14008KT 11/01 A3022 RMK A01 T01100011  RH  050%=      5-min Rain = 0
KWA1 150052Z 14008KT 11/01 A3022 RMK A01 T01120012  RH  050%=      5-min Rain = 0
KWA1 150053Z 14008KT 11/01 A3022 RMK A01 T01110011  RH  050%=      5-min Rain = 0
KWA1 150054Z 14008KT 11/01 A3021 RMK A01 T01110010  RH  050%=      5-min Rain = 0
KWA1 150055Z 14009KT 11/01 A3021 RMK A01 T01120010  RH  050%=      5-min Rain = 0
KWA1 150056Z 14009KT 11/01 A3021 RMK A01 T01120010  RH  049%=      5-min Rain = 0
KWA1 150057Z 14010KT 11/01 A3021 RMK A01 T01120009  RH  049%=      5-min Rain = 0
KWA1 150058Z 14009KT 11/01 A3021 RMK A01 T01130008  RH  049%=      5-min Rain = 0
KWA1 150059Z 14010KT 11/01 A3021 RMK A01 T01130008  RH  048%=      5-min Rain = 0
KWA1 150100Z 14009KT 11/01 A3021 RMK A01 T01130008  RH  048%=      5-min Rain = 0
KWA1 150101Z 14010KT 11/01 A3021 RMK A01 T01130009  RH  049%=      5-min Rain = 0
KWA1 150102Z 15010KT 11/01 A3021 RMK A01 T01120008  RH  049%=      5-min Rain = 0
KWA1 150103Z 14010KT 11/01 A3021 RMK A01 T01120009  RH  049%=      5-min Rain = 0
KWA1 150104Z 14010KT 11/01 A3021 RMK A01 T01100009  RH  049%=      5-min Rain = 0
KWA1 150105Z 14010KT 11/01 A3022 RMK A01 T01090009  RH  050%=      5-min Rain = 0
KWA1 150106Z 14009KT 11/01 A3022 RMK A01 T01080008  RH  050%=      5-min Rain = 0
KWA1 150107Z 14009KT 11/01 A3022 RMK A01 T01080008  RH  050%=      5-min Rain = 0
KWA1 150108Z 14009KT 11/01 A3022 RMK A01 T01070008  RH  050%=      5-min Rain = 0
KWA1 150109Z 14009KT 11/01 A3022 RMK A01 T01070008  RH  050%=      5-min Rain = 0
KWA1 150110Z 14009KT 11/01 A3022 RMK A01 T01060007  RH  050%=      5-min Rain = 0
KWA1 150111Z 14009KT 11/01 A3022 RMK A01 T01070008  RH  050%=      5-min Rain = 0
KWA1 150112Z 14009KT 11/01 A3022 RMK A01 T01070008  RH  050%=      5-min Rain = 0
KWA1 150113Z 14009KT 11/01 A3022 RMK A01 T01060008  RH  050%=      5-min Rain = 0
KWA1 150114Z 14009KT 11/01 A3022 RMK A01 T01060007  RH  050%=      5-min Rain = 0
KWA1 150115Z 14008KT 11/01 A3022 RMK A01 T01060008  RH  051%=      5-min Rain = 0
KWA1 150116Z 14008KT 11/01 A3022 RMK A01 T01050008  RH  051%=      5-min Rain = 0
KWA1 150117Z 14008KT 10/01 A3022 RMK A01 T01040008  RH  051%=      5-min Rain = 0
KWA1 150118Z 14008KT 10/01 A3022 RMK A01 T01040008  RH  051%=      5-min Rain = 0
KWA1 150119Z 14008KT 10/01 A3022 RMK A01 T01040008  RH  051%=      5-min Rain = 0
KWA1 150120Z 14007KT 10/01 A3022 RMK A01 T01030008  RH  052%=      5-min Rain = 0
KWA1 150121Z 14008KT 10/01 A3022 RMK A01 T01020008  RH  052%=      5-min Rain = 0
KWA1 150122Z 14008KT 10/01 A3022 RMK A01 T01010008  RH  052%=      5-min Rain = 0
KWA1 150123Z 14008KT 10/01 A3022 RMK A01 T01010008  RH  052%=      5-min Rain = 0
KWA1 150124Z 14008KT 10/01 A3022 RMK A01 T01010008  RH  052%=      5-min Rain = 0
KWA1 150125Z 14008KT 10/01 A3022 RMK A01 T01000008  RH  053%=      5-min Rain = 0
KWA1 150126Z 14008KT 10/01 A3022 RMK A01 T00980009  RH  054%=      5-min Rain = 0
KWA1 150127Z 14008KT 10/01 A3022 RMK A01 T00960009  RH  055%=      5-min Rain = 0
KWA1 150128Z 14008KT 09/01 A3022 RMK A01 T00940010  RH  055%=      5-min Rain = 0
KWA1 150129Z 14007KT 09/01 A3022 RMK A01 T00930009  RH  056%=      5-min Rain = 0
KWA1 150130Z 14008KT 09/01 A3022 RMK A01 T00920010  RH  056%=      5-min Rain = 0
KWA1 150131Z 14008KT 09/01 A3022 RMK A01 T00910010  RH  057%=      5-min Rain = 0
KWA1 150132Z 14008KT 09/01 A3022 RMK A01 T00900010  RH  057%=      5-min Rain = 0
KWA1 150133Z 15008KT 09/01 A3022 RMK A01 T00880010  RH  058%=      5-min Rain = 0
KWA1 150134Z 15007KT 09/01 A3022 RMK A01 T00870010  RH  059%=      5-min Rain = 0
KWA1 150135Z 15007KT 09/01 A3022 RMK A01 T00860010  RH  059%=      5-min Rain = 0
KWA1 150136Z 14008KT 09/01 A3022 RMK A01 T00850010  RH  059%=      5-min Rain = 0
KWA1 150137Z 14007KT 08/01 A3023 RMK A01 T00840010  RH  059%=      5-min Rain = 0
KWA1 150138Z 14008KT 08/01 A3023 RMK A01 T00840010  RH  060%=      5-min Rain = 0
KWA1 150139Z 14008KT 08/01 A3023 RMK A01 T00830010  RH  060%=      5-min Rain = 0
KWA1 150140Z 14008KT 08/01 A3023 RMK A01 T00840010  RH  060%=      5-min Rain = 0
KWA1 150141Z 14008KT 08/01 A3023 RMK A01 T00840009  RH  060%=      5-min Rain = 0
KWA1 150142Z 14008KT 08/01 A3023 RMK A01 T00840010  RH  060%=      5-min Rain = 0
KWA1 150143Z 14008KT 08/01 A3023 RMK A01 T00840009  RH  060%=      5-min Rain = 0
KWA1 150144Z 14008KT 08/01 A3023 RMK A01 T00830009  RH  060%=      5-min Rain = 0
KWA1 150145Z 14008KT 08/01 A3023 RMK A01 T00820009  RH  060%=      5-min Rain = 0
KWA1 150146Z 14008KT 08/01 A3023 RMK A01 T00820009  RH  060%=      5-min Rain = 0
KWA1 150147Z 14008KT 08/01 A3023 RMK A01 T00810009  RH  060%=      5-min Rain = 0
KWA1 150148Z 15008KT 08/01 A3023 RMK A01 T00810009  RH  060%=      5-min Rain = 0
KWA1 150149Z 15008KT 08/01 A3023 RMK A01 T00810009  RH  061%=      5-min Rain = 0
KWA1 150150Z 14008KT 08/01 A3023 RMK A01 T00800009  RH  061%=      5-min Rain = 0
KWA1 150151Z 15008KT 08/01 A3023 RMK A01 T00790009  RH  061%=      5-min Rain = 0
KWA1 150152Z 15008KT 08/01 A3023 RMK A01 T00790009  RH  061%=      5-min Rain = 0
KWA1 150153Z 15008KT 08/01 A3023 RMK A01 T00790009  RH  061%=      5-min Rain = 0
KWA1 150154Z 15008KT 08/01 A3023 RMK A01 T00780009  RH  061%=      5-min Rain = 0
KWA1 150155Z 15008KT 08/01 A3023 RMK A01 T00780009  RH  062%=      5-min Rain = 0
KWA1 150156Z 15009KT 08/01 A3023 RMK A01 T00780009  RH  062%=      5-min Rain = 0
KWA1 150157Z 15009KT 08/01 A3023 RMK A01 T00780009  RH  062%=      5-min Rain = 0
KWA1 150158Z 15008KT 08/01 A3023 RMK A01 T00770009  RH  062%=      5-min Rain = 0
KWA1 150159Z 15008KT 08/01 A3023 RMK A01 T00760008  RH  062%=      5-min Rain = 0
KWA1 150200Z 15009KT 08/01 A3024 RMK A01 T00760008  RH  062%=      5-min Rain = 0
KWA1 150201Z 15009KT 08/01 A3024 RMK A01 T00750008  RH  062%=      5-min Rain = 0
KWA1 150202Z 15008KT 08/01 A3024 RMK A01 T00750008  RH  062%=      5-min Rain = 0
KWA1 150203Z 15009KT 08/01 A3024 RMK A01 T00750008  RH  062%=      5-min Rain = 0
KWA1 150204Z 15008KT 08/01 A3024 RMK A01 T00760008  RH  062%=      5-min Rain = 0
KWA1 150205Z 15009KT 08/01 A3024 RMK A01 T00760008  RH  062%=      5-min Rain = 0
KWA1 150206Z 15009KT 08/01 A3024 RMK A01 T00760008  RH  062%=      5-min Rain = 0
KWA1 150207Z 15008KT 08/01 A3024 RMK A01 T00760008  RH  062%=      5-min Rain = 0
KWA1 150208Z 15008KT 08/01 A3024 RMK A01 T00760008  RH  062%=      5-min Rain = 0
KWA1 150209Z 15008KT 08/01 A3024 RMK A01 T00750008  RH  062%=      5-min Rain = 0
KWA1 150210Z 15008KT 08/01 A3024 RMK A01 T00750008  RH  062%=      5-min Rain = 0
KWA1 150211Z 15008KT 08/01 A3024 RMK A01 T00750008  RH  062%=      5-min Rain = 0
KWA1 150212Z 15008KT 08/01 A3024 RMK A01 T00750008  RH  063%=      5-min Rain = 0
KWA1 150213Z 15008KT 07/01 A3024 RMK A01 T00730008  RH  063%=      5-min Rain = 0
KWA1 150214Z 15008KT 07/01 A3024 RMK A01 T00710008  RH  064%=      5-min Rain = 0
KWA1 150215Z 15008KT 07/01 A3024 RMK A01 T00700008  RH  064%=      5-min Rain = 0
KWA1 150216Z 15008KT 07/01 A3024 RMK A01 T00700008  RH  065%=      5-min Rain = 0
KWA1 150217Z 15008KT 07/01 A3024 RMK A01 T00690007  RH  065%=      5-min Rain = 0
KWA1 150218Z 16007KT 07/01 A3025 RMK A01 T00680007  RH  065%=      5-min Rain = 0
KWA1 150219Z 16007KT 07/01 A3025 RMK A01 T00670007  RH  066%=      5-min Rain = 0
KWA1 150220Z 16007KT 07/01 A3025 RMK A01 T00660007  RH  066%=      5-min Rain = 0
KWA1 150221Z 16007KT 07/01 A3025 RMK A01 T00650007  RH  066%=      5-min Rain = 0
KWA1 150222Z 16007KT 06/01 A3025 RMK A01 T00640006  RH  066%=      5-min Rain = 0
KWA1 150223Z 15007KT 06/01 A3025 RMK A01 T00640006  RH  067%=      5-min Rain = 0
KWA1 150224Z 16007KT 06/01 A3025 RMK A01 T00630007  RH  067%=      5-min Rain = 0
KWA1 150225Z 16007KT 06/01 A3025 RMK A01 T00620006  RH  067%=      5-min Rain = 0
KWA1 150226Z 16007KT 06/01 A3024 RMK A01 T00620006  RH  068%=      5-min Rain = 0
KWA1 150227Z 15007KT 06/01 A3024 RMK A01 T00610006  RH  068%=      5-min Rain = 0
KWA1 150228Z 15008KT 06/01 A3024 RMK A01 T00610007  RH  068%=      5-min Rain = 0
KWA1 150229Z 15008KT 06/01 A3025 RMK A01 T00610007  RH  068%=      5-min Rain = 0
KWA1 150230Z 15008KT 06/01 A3025 RMK A01 T00610006  RH  068%=      5-min Rain = 0
KWA1 150231Z 15008KT 06/01 A3025 RMK A01 T00610006  RH  068%=      5-min Rain = 0
KWA1 150232Z 15008KT 06/01 A3025 RMK A01 T00610006  RH  068%=      5-min Rain = 0
KWA1 150233Z 16008KT 06/01 A3025 RMK A01 T00600006  RH  068%=      5-min Rain = 0
KWA1 150234Z 16008KT 06/01 A3025 RMK A01 T00600006  RH  068%=      5-min Rain = 0
KWA1 150235Z 16008KT 06/01 A3025 RMK A01 T00590006  RH  069%=      5-min Rain = 0
KWA1 150236Z 16008KT 06/01 A3025 RMK A01 T00590006  RH  069%=      5-min Rain = 0
KWA1 150237Z 16008KT 06/01 A3025 RMK A01 T00590006  RH  069%=      5-min Rain = 0
KWA1 150238Z 17008KT 06/01 A3025 RMK A01 T00590006  RH  069%=      5-min Rain = 0
KWA1 150239Z 17007KT 06/01 A3025 RMK A01 T00600006  RH  068%=      5-min Rain = 0
KWA1 150240Z 17008KT 06/01 A3026 RMK A01 T00600005  RH  068%=      5-min Rain = 0
KWA1 150241Z 16008KT 06/01 A3026 RMK A01 T00600006  RH  068%=      5-min Rain = 0
KWA1 150242Z 16008KT 06/01 A3026 RMK A01 T00600005  RH  068%=      5-min Rain = 0
KWA1 150243Z 16008KT 06/01 A3026 RMK A01 T00620005  RH  067%=      5-min Rain = 0
KWA1 150244Z 16008KT 06/01 A3026 RMK A01 T00620005  RH  067%=      5-min Rain = 0
KWA1 150245Z 16009KT 06/00 A3026 RMK A01 T00630004  RH  066%=      5-min Rain = 0
KWA1 150246Z 16009KT 06/00 A3026 RMK A01 T00630004  RH  066%=      5-min Rain = 0
KWA1 150247Z 16009KT 06/00 A3026 RMK A01 T00630004  RH  066%=      5-min Rain = 0
KWA1 150248Z 16009KT 06/00 A3026 RMK A01 T00630003  RH  065%=      5-min Rain = 0
KWA1 150249Z 16010KT 06/00 A3026 RMK A01 T00640004  RH  065%=      5-min Rain = 0
KWA1 150250Z 16010KT 06/00 A3026 RMK A01 T00640004  RH  066%=      5-min Rain = 0
KWA1 150251Z 16010KT 06/00 A3026 RMK A01 T00630003  RH  066%=      5-min Rain = 0
KWA1 150252Z 16009KT 06/00 A3026 RMK A01 T00630003  RH  066%=      5-min Rain = 0
KWA1 150253Z 15010KT 06/00 A3026 RMK A01 T00630003  RH  066%=      5-min Rain = 0
KWA1 150254Z 15010KT 06/00 A3026 RMK A01 T00630003  RH  066%=      5-min Rain = 0
KWA1 150255Z 15010KT 06/00 A3026 RMK A01 T00620003  RH  066%=      5-min Rain = 0
KWA1 150256Z 15010KT 06/00 A3026 RMK A01 T00610003  RH  066%=      5-min Rain = 0
KWA1 150257Z 15010KT 06/00 A3026 RMK A01 T00610003  RH  066%=      5-min Rain = 0
KWA1 150258Z 15010KT 06/00 A3026 RMK A01 T00610003  RH  066%=      5-min Rain = 0
KWA1 150259Z 15010KT 06/00 A3026 RMK A01 T00610003  RH  066%=      5-min Rain = 0
KWA1 150300Z 15010KT 06/00 A3026 RMK A01 T00600002  RH  066%=      5-min Rain = 0
KWA1 150301Z 15010KT 06/00 A3026 RMK A01 T00610002  RH  066%=      5-min Rain = 0
KWA1 150302Z 15010KT 06/00 A3026 RMK A01 T00610002  RH  066%=      5-min Rain = 0
KWA1 150303Z 15010KT 06/00 A3026 RMK A01 T00610002  RH  066%=      5-min Rain = 0
KWA1 150304Z 15010KT 06/00 A3026 RMK A01 T00610002  RH  066%=      5-min Rain = 0
KWA1 150305Z 15010KT 06/00 A3026 RMK A01 T00610002  RH  066%=      5-min Rain = 0
KWA1 150306Z 15010KT 06/00 A3026 RMK A01 T00620002  RH  065%=      5-min Rain = 0
KWA1 150307Z 15010KT 06/00 A3026 RMK A01 T00620002  RH  066%=      5-min Rain = 0
KWA1 150308Z 15010KT 06/00 A3026 RMK A01 T00610002  RH  066%=      5-min Rain = 0
KWA1 150309Z 15010KT 06/00 A3026 RMK A01 T00600001  RH  066%=      5-min Rain = 0
KWA1 150310Z 16009KT 06/00 A3026 RMK A01 T00600002  RH  066%=      5-min Rain = 0
KWA1 150311Z 16009KT 06/00 A3026 RMK A01 T00600002  RH  066%=      5-min Rain = 0
KWA1 150312Z 16009KT 06/00 A3026 RMK A01 T00590002  RH  066%=      5-min Rain = 0
KWA1 150313Z 16010KT 06/00 A3026 RMK A01 T00590001  RH  067%=      5-min Rain = 0
KWA1 150314Z 16009KT 06/00 A3026 RMK A01 T00590002  RH  067%=      5-min Rain = 0
KWA1 150315Z 15010KT 06/00 A3026 RMK A01 T00590002  RH  067%=      5-min Rain = 0
KWA1 150316Z 16010KT 06/00 A3026 RMK A01 T00580002  RH  067%=      5-min Rain = 0
KWA1 150317Z 16010KT 06/00 A3026 RMK A01 T00580002  RH  067%=      5-min Rain = 0
KWA1 150318Z 15010KT 06/00 A3026 RMK A01 T00580002  RH  067%=      5-min Rain = 0
KWA1 150319Z 16010KT 06/00 A3026 RMK A01 T00570002  RH  068%=      5-min Rain = 0
KWA1 150320Z 15010KT 06/00 A3026 RMK A01 T00570002  RH  068%=      5-min Rain = 0
KWA1 150321Z 15011KT 06/00 A3026 RMK A01 T00570002  RH  068%=      5-min Rain = 0
KWA1 150322Z 15011KT 06/00 A3026 RMK A01 T00570001  RH  067%=      5-min Rain = 0
KWA1 150323Z 15011KT 06/00 A3026 RMK A01 T00570001  RH  067%=      5-min Rain = 0
KWA1 150324Z 15011KT 06/00 A3026 RMK A01 T00570002  RH  067%=      5-min Rain = 0
KWA1 150325Z 15011KT 06/00 A3026 RMK A01 T00570001  RH  067%=      5-min Rain = 0
KWA1 150326Z 15011KT 06/00 A3026 RMK A01 T00570001  RH  067%=      5-min Rain = 0
KWA1 150327Z 15010KT 06/00 A3026 RMK A01 T00580002  RH  067%=      5-min Rain = 0
KWA1 150328Z 15010KT 06/00 A3026 RMK A01 T00580002  RH  067%=      5-min Rain = 0
KWA1 150329Z 15009KT 06/00 A3026 RMK A01 T00580002  RH  067%=      5-min Rain = 0
KWA1 150330Z 15009KT 06/00 A3026 RMK A01 T00580002  RH  067%=      5-min Rain = 0
KWA1 150331Z 15009KT 06/00 A3026 RMK A01 T00590002  RH  067%=      5-min Rain = 0
KWA1 150332Z 15009KT 06/00 A3026 RMK A01 T00580001  RH  067%=      5-min Rain = 0
KWA1 150333Z 15008KT 06/00 A3026 RMK A01 T00580002  RH  067%=      5-min Rain = 0
KWA1 150334Z 15008KT 06/00 A3026 RMK A01 T00570002  RH  067%=      5-min Rain = 0
KWA1 150335Z 15008KT 06/00 A3026 RMK A01 T00570002  RH  068%=      5-min Rain = 0
KWA1 150336Z 15009KT 06/00 A3026 RMK A01 T00560001  RH  068%=      5-min Rain = 0
KWA1 150337Z 15009KT 06/00 A3026 RMK A01 T00560002  RH  068%=      5-min Rain = 0
KWA1 150338Z 15009KT 06/00 A3026 RMK A01 T00560001  RH  068%=      5-min Rain = 0
KWA1 150339Z 15009KT 06/00 A3026 RMK A01 T00570001  RH  067%=      5-min Rain = 0
KWA1 150340Z 15009KT 06/00 A3026 RMK A01 T00580001  RH  067%=      5-min Rain = 0
KWA1 150341Z 15009KT 06/00 A3026 RMK A01 T00580001  RH  067%=      5-min Rain = 0
KWA1 150342Z 15009KT 06/00 A3026 RMK A01 T00570001  RH  067%=      5-min Rain = 0
KWA1 150343Z 15009KT 06/00 A3026 RMK A01 T00560001  RH  068%=      5-min Rain = 0
KWA1 150344Z 15008KT 06/00 A3026 RMK A01 T00550001  RH  068%=      5-min Rain = 0
KWA1 150345Z 16008KT 05/00 A3026 RMK A01 T00540001  RH  069%=      5-min Rain = 0
KWA1 150346Z 15008KT 05/00 A3026 RMK A01 T00530001  RH  069%=      5-min Rain = 0
KWA1 150347Z 16007KT 05/00 A3026 RMK A01 T00520001  RH  069%=      5-min Rain = 0
KWA1 150348Z 16007KT 05/00 A3026 RMK A01 T00520001  RH  070%=      5-min Rain = 0
KWA1 150349Z 16008KT 05/00 A3026 RMK A01 T00510001  RH  070%=      5-min Rain = 0
KWA1 150350Z 16008KT 05/00 A3026 RMK A01 T00500001  RH  070%=      5-min Rain = 0
KWA1 150351Z 16008KT 05/00 A3026 RMK A01 T00500001  RH  071%=      5-min Rain = 0
KWA1 150352Z 16009KT 05/00 A3026 RMK A01 T00490001  RH  071%=      5-min Rain = 0
KWA1 150353Z 16009KT 05/00 A3026 RMK A01 T00490001  RH  071%=      5-min Rain = 0
KWA1 150354Z 16009KT 05/00 A3025 RMK A01 T00500002  RH  071%=      5-min Rain = 0
KWA1 150355Z 16009KT 05/00 A3025 RMK A01 T00510002  RH  070%=      5-min Rain = 0
KWA1 150356Z 16009KT 05/00 A3025 RMK A01 T00520002  RH  070%=      5-min Rain = 0
KWA1 150357Z 16010KT 05/00 A3025 RMK A01 T00520002  RH  070%=      5-min Rain = 0
KWA1 150358Z 16010KT 05/00 A3025 RMK A01 T00530002  RH  070%=      5-min Rain = 0
KWA1 150359Z 16010KT 05/00 A3025 RMK A01 T00540002  RH  069%=      5-min Rain = 0
KWA1 150400Z 16010KT 05/00 A3026 RMK A01 T00540002  RH  069%=      5-min Rain = 0
KWA1 150401Z 17010KT 06/00 A3026 RMK A01 T00550002  RH  069%=      5-min Rain = 0
KWA1 150402Z 17010KT 06/00 A3026 RMK A01 T00560002  RH  068%=      5-min Rain = 0
KWA1 150403Z 17009KT 06/00 A3026 RMK A01 T00560002  RH  068%=      5-min Rain = 0
KWA1 150404Z 16009KT 06/00 A3026 RMK A01 T00560001  RH  068%=      5-min Rain = 0
KWA1 150405Z 17009KT 06/00 A3026 RMK A01 T00560002  RH  068%=      5-min Rain = 0
KWA1 150406Z 16009KT 06/00 A3026 RMK A01 T00560001  RH  068%=      5-min Rain = 0
KWA1 150407Z 17009KT 06/00 A3026 RMK A01 T00560001  RH  068%=      5-min Rain = 0
KWA1 150408Z 17008KT 06/00 A3026 RMK A01 T00560001  RH  068%=      5-min Rain = 0
KWA1 150409Z 17008KT 06/00 A3026 RMK A01 T00560001  RH  068%=      5-min Rain = 0
KWA1 150410Z 17008KT 06/00 A3026 RMK A01 T00560001  RH  068%=      5-min Rain = 0
KWA1 150411Z 17007KT 06/00 A3026 RMK A01 T00550001  RH  068%=      5-min Rain = 0
KWA1 150412Z 17007KT 05/00 A3026 RMK A01 T00540001  RH  069%=      5-min Rain = 0
KWA1 150413Z 17007KT 05/00 A3026 RMK A01 T00540001  RH  069%=      5-min Rain = 0
KWA1 150414Z 17007KT 05/00 A3026 RMK A01 T00540001  RH  069%=      5-min Rain = 0
KWA1 150415Z 17007KT 05/00 A3026 RMK A01 T00530001  RH  069%=      5-min Rain = 0
KWA1 150416Z 17007KT 05/00 A3026 RMK A01 T00520001  RH  069%=      5-min Rain = 0
KWA1 150417Z 17007KT 05/00 A3026 RMK A01 T00520001  RH  070%=      5-min Rain = 0
KWA1 150418Z 17007KT 05/00 A3026 RMK A01 T00520002  RH  070%=      5-min Rain = 0
KWA1 150419Z 17008KT 05/00 A3026 RMK A01 T00520002  RH  070%=      5-min Rain = 0
KWA1 150420Z 17007KT 05/00 A3026 RMK A01 T00520002  RH  070%=      5-min Rain = 0
KWA1 150421Z 17007KT 05/00 A3026 RMK A01 T00510002  RH  071%=      5-min Rain = 0
KWA1 150422Z 17008KT 05/00 A3026 RMK A01 T00500002  RH  071%=      5-min Rain = 0
KWA1 150423Z 17008KT 05/00 A3026 RMK A01 T00490003  RH  072%=      5-min Rain = 0
KWA1 150424Z 17008KT 05/00 A3025 RMK A01 T00490003  RH  072%=      5-min Rain = 0
KWA1 150425Z 17007KT 05/00 A3025 RMK A01 T00490004  RH  072%=      5-min Rain = 0
KWA1 150426Z 17007KT 05/00 A3025 RMK A01 T00490004  RH  073%=      5-min Rain = 0
KWA1 150427Z 17007KT 05/00 A3025 RMK A01 T00480004  RH  073%=      5-min Rain = 0
KWA1 150428Z 17007KT 05/01 A3025 RMK A01 T00480005  RH  073%=      5-min Rain = 0
KWA1 150429Z 17008KT 05/01 A3025 RMK A01 T00480005  RH  074%=      5-min Rain = 0
KWA1 150430Z 17008KT 05/01 A3025 RMK A01 T00480006  RH  074%=      5-min Rain = 0
KWA1 150431Z 17008KT 05/01 A3025 RMK A01 T00480006  RH  074%=      5-min Rain = 0
KWA1 150432Z 17008KT 05/01 A3025 RMK A01 T00490006  RH  074%=      5-min Rain = 0
KWA1 150433Z 17007KT 05/01 A3025 RMK A01 T00490007  RH  074%=      5-min Rain = 0
KWA1 150434Z 16007KT 05/01 A3025 RMK A01 T00490007  RH  074%=      5-min Rain = 0
KWA1 150435Z 16006KT 05/01 A3025 RMK A01 T00500007  RH  074%=      5-min Rain = 0
KWA1 150436Z 16006KT 05/01 A3025 RMK A01 T00500008  RH  074%=      5-min Rain = 0
KWA1 150437Z 16006KT 05/01 A3025 RMK A01 T00510008  RH  074%=      5-min Rain = 0
KWA1 150438Z 16006KT 05/01 A3025 RMK A01 T00510008  RH  073%=      5-min Rain = 0
KWA1 150439Z 16007KT 05/01 A3025 RMK A01 T00530008  RH  073%=      5-min Rain = 0
KWA1 150440Z 17006KT 05/01 A3025 RMK A01 T00530008  RH  073%=      5-min Rain = 0
KWA1 150441Z 16007KT 05/01 A3025 RMK A01 T00530008  RH  073%=      5-min Rain = 0
KWA1 150442Z 16008KT 05/01 A3025 RMK A01 T00530008  RH  073%=      5-min Rain = 0
KWA1 150443Z 16008KT 05/01 A3025 RMK A01 T00520008  RH  073%=      5-min Rain = 0
KWA1 150444Z 16008KT 05/01 A3025 RMK A01 T00530008  RH  073%=      5-min Rain = 0
KWA1 150445Z 16008KT 05/01 A3025 RMK A01 T00530008  RH  073%=      5-min Rain = 0
KWA1 150446Z 16008KT 05/01 A3025 RMK A01 T00520008  RH  073%=      5-min Rain = 0
KWA1 150447Z 16008KT 05/01 A3025 RMK A01 T00520008  RH  073%=      5-min Rain = 0
KWA1 150448Z 16008KT 05/01 A3025 RMK A01 T00520008  RH  073%=      5-min Rain = 0
KWA1 150449Z 16008KT 05/01 A3025 RMK A01 T00510007  RH  073%=      5-min Rain = 0
KWA1 150450Z 16008KT 05/01 A3025 RMK A01 T00510007  RH  074%=      5-min Rain = 0
KWA1 150451Z 15008KT 05/01 A3025 RMK A01 T00490006  RH  074%=      5-min Rain = 0
KWA1 150452Z 15008KT 05/01 A3024 RMK A01 T00480006  RH  074%=      5-min Rain = 0
KWA1 150453Z 15008KT 05/01 A3024 RMK A01 T00480007  RH  075%=      5-min Rain = 0
KWA1 150454Z 15008KT 05/01 A3024 RMK A01 T00470006  RH  075%=      5-min Rain = 0
KWA1 150455Z 16008KT 05/01 A3025 RMK A01 T00460006  RH  075%=      5-min Rain = 0
KWA1 150456Z 15008KT 05/01 A3025 RMK A01 T00450006  RH  076%=      5-min Rain = 0
KWA1 150457Z 16008KT 05/01 A3025 RMK A01 T00450006  RH  076%=      5-min Rain = 0
KWA1 150458Z 15008KT 04/01 A3025 RMK A01 T00440005  RH  076%=      5-min Rain = 0
KWA1 150459Z 15008KT 04/01 A3024 RMK A01 T00440006  RH  076%=      5-min Rain = 0
KWA1 150500Z 15008KT 04/01 A3024 RMK A01 T00440006  RH  076%=      5-min Rain = 0
KWA1 150501Z 14008KT 04/01 A3024 RMK A01 T00440006  RH  076%=      5-min Rain = 0
KWA1 150502Z 14008KT 04/01 A3024 RMK A01 T00440005  RH  076%=      5-min Rain = 0
KWA1 150503Z 14008KT 05/01 A3024 RMK A01 T00450006  RH  076%=      5-min Rain = 0
KWA1 150504Z 14008KT 05/01 A3024 RMK A01 T00460006  RH  075%=      5-min Rain = 0
KWA1 150505Z 14008KT 05/01 A3024 RMK A01 T00490008  RH  075%=      5-min Rain = 0
KWA1 150506Z 14007KT 05/01 A3024 RMK A01 T00530009  RH  073%=      5-min Rain = 0
KWA1 150507Z 14007KT 05/01 A3024 RMK A01 T00540008  RH  072%=      5-min Rain = 0
KWA1 150508Z 14007KT 06/01 A3024 RMK A01 T00560008  RH  071%=      5-min Rain = 0
KWA1 150509Z 15006KT 06/01 A3024 RMK A01 T00560007  RH  071%=      5-min Rain = 0
KWA1 150510Z 14006KT 06/01 A3024 RMK A01 T00550007  RH  071%=      5-min Rain = 0
KWA1 150511Z 14006KT 05/01 A3024 RMK A01 T00540006  RH  071%=      5-min Rain = 0
KWA1 150512Z 14006KT 05/01 A3024 RMK A01 T00530006  RH  072%=      5-min Rain = 0
KWA1 150513Z 14006KT 05/01 A3024 RMK A01 T00530006  RH  072%=      5-min Rain = 0
KWA1 150514Z 14006KT 05/01 A3024 RMK A01 T00520006  RH  072%=      5-min Rain = 0
KWA1 150515Z 14006KT 05/01 A3024 RMK A01 T00510005  RH  073%=      5-min Rain = 0
KWA1 150516Z 14005KT 05/01 A3024 RMK A01 T00490005  RH  073%=      5-min Rain = 0
KWA1 150517Z 14005KT 05/01 A3024 RMK A01 T00480005  RH  074%=      5-min Rain = 0
KWA1 150518Z 14005KT 05/01 A3024 RMK A01 T00470005  RH  074%=      5-min Rain = 0
KWA1 150519Z 14005KT 05/01 A3024 RMK A01 T00460005  RH  075%=      5-min Rain = 0
KWA1 150520Z 14005KT 05/01 A3024 RMK A01 T00460005  RH  075%=      5-min Rain = 0
KWA1 150521Z 14004KT 05/01 A3024 RMK A01 T00460005  RH  075%=      5-min Rain = 0
KWA1 150522Z 14004KT 05/01 A3024 RMK A01 T00460006  RH  075%=      5-min Rain = 0
KWA1 150523Z 14003KT 05/01 A3024 RMK A01 T00460006  RH  075%=      5-min Rain = 0
KWA1 150524Z 14003KT 05/01 A3024 RMK A01 T00460006  RH  075%=      5-min Rain = 0
KWA1 150525Z 14003KT 05/01 A3024 RMK A01 T00470007  RH  075%=      5-min Rain = 0
KWA1 150526Z 15003KT 05/01 A3024 RMK A01 T00480007  RH  075%=      5-min Rain = 0
KWA1 150527Z 15003KT 05/01 A3024 RMK A01 T00480006  RH  074%=      5-min Rain = 0
KWA1 150528Z 15003KT 05/01 A3025 RMK A01 T00480006  RH  074%=      5-min Rain = 0
KWA1 150529Z 16003KT 05/01 A3025 RMK A01 T00480007  RH  074%=      5-min Rain = 0
KWA1 150530Z 16003KT 05/01 A3025 RMK A01 T00480006  RH  074%=      5-min Rain = 0
KWA1 150531Z 16004KT 05/01 A3025 RMK A01 T00490006  RH  074%=      5-min Rain = 0
KWA1 150532Z 16004KT 05/01 A3024 RMK A01 T00490007  RH  074%=      5-min Rain = 0
KWA1 150533Z 16005KT 05/01 A3024 RMK A01 T00500008  RH  074%=      5-min Rain = 0
KWA1 150534Z 16005KT 05/01 A3024 RMK A01 T00510007  RH  073%=      5-min Rain = 0
KWA1 150535Z 16006KT 05/01 A3024 RMK A01 T00520007  RH  073%=      5-min Rain = 0
KWA1 150536Z 16007KT 05/01 A3024 RMK A01 T00510006  RH  073%=      5-min Rain = 0
KWA1 150537Z 16006KT 05/01 A3024 RMK A01 T00530008  RH  073%=      5-min Rain = 0
KWA1 150538Z 16006KT 05/01 A3024 RMK A01 T00540007  RH  072%=      5-min Rain = 0
KWA1 150539Z 17005KT 05/00 A3024 RMK A01 T00520004  RH  071%=      5-min Rain = 0
KWA1 150540Z 17005KT 05/00 A3024 RMK A01 T00490003  RH  072%=      5-min Rain = 0
KWA1 150541Z 17006KT 05/00 A3024 RMK A01 T00470004  RH  073%=      5-min Rain = 0
KWA1 150542Z 17006KT 05/01 A3024 RMK A01 T00470005  RH  074%=      5-min Rain = 0
KWA1 150543Z 17006KT 05/01 A3024 RMK A01 T00470005  RH  074%=      5-min Rain = 0
KWA1 150544Z 17007KT 05/01 A3024 RMK A01 T00470005  RH  074%=      5-min Rain = 0
KWA1 150545Z 17007KT 05/00 A3024 RMK A01 T00460004  RH  075%=      5-min Rain = 0
KWA1 150546Z 16008KT 05/01 A3024 RMK A01 T00460005  RH  075%=      5-min Rain = 0
KWA1 150547Z 16008KT 05/01 A3024 RMK A01 T00460006  RH  075%=      5-min Rain = 0
KWA1 150548Z 16008KT 05/01 A3024 RMK A01 T00470007  RH  075%=      5-min Rain = 0
KWA1 150549Z 16008KT 05/01 A3024 RMK A01 T00490008  RH  075%=      5-min Rain = 0
KWA1 150550Z 17008KT 05/01 A3024 RMK A01 T00500009  RH  074%=      5-min Rain = 0
KWA1 150551Z 17008KT 05/01 A3024 RMK A01 T00510009  RH  074%=      5-min Rain = 0
KWA1 150552Z 17008KT 05/01 A3024 RMK A01 T00510008  RH  074%=      5-min Rain = 0
KWA1 150553Z 17008KT 05/01 A3024 RMK A01 T00510009  RH  074%=      5-min Rain = 0
KWA1 150554Z 17008KT 05/01 A3024 RMK A01 T00520009  RH  074%=      5-min Rain = 0
KWA1 150555Z 17009KT 05/01 A3024 RMK A01 T00530009  RH  073%=      5-min Rain = 0
KWA1 150556Z 17008KT 05/01 A3024 RMK A01 T00540009  RH  073%=      5-min Rain = 0
KWA1 150557Z 17008KT 05/01 A3024 RMK A01 T00540009  RH  073%=      5-min Rain = 0
KWA1 150558Z 17008KT 06/01 A3024 RMK A01 T00550009  RH  072%=      5-min Rain = 0
KWA1 150559Z 17008KT 06/01 A3024 RMK A01 T00550009  RH  072%=      5-min Rain = 0

Page generated in 0.0782 seconds.